THY20LZ KBOS-LTFM

Flight info

Callsign THY20LZ
Flight time 9h 14m
Altitude 37000
Route LBSTA8 LBSTA PORTI NATT GISTI LONDU LUNIG ENJEX ADHAV AGCAT AXNEF ZIPWE OZZIL SAWPE Q63 CPT UL9 BIG L607 KONAN KOK LIRSU LALMI ABTAL RIDAR GOMIG GOLVA OBUTI TUVAR ETIDA T390 RILEX RILE2A
Aircraft A359/H-VGDW/C

Departure

Time 2026-05-04 23:23
Airport Boston Logan International Airport (KBOS)

Arrival

Time 2026-05-05 08:37
Airport İstanbul Airport (LTFM)
Time Latitude Longitude Altitude Speed Heading
2026-05-04 22:51 42.37052 -71.02238 20 ft 0 kts 140°
2026-05-04 23:06 42.37057 -71.02243 20 ft 2 kts 143°
2026-05-04 23:06 42.37069 -71.02254 20 ft 2 kts 147°
2026-05-04 23:07 42.37081 -71.02265 20 ft 2 kts 145°
2026-05-04 23:07 42.37093 -71.02277 20 ft 2 kts 144°
2026-05-04 23:07 42.37106 -71.02289 20 ft 2 kts 144°
2026-05-04 23:07 42.37117 -71.02300 20 ft 2 kts 144°
2026-05-04 23:08 42.37127 -71.02309 20 ft 0 kts 144°
2026-05-04 23:08 42.37135 -71.02317 20 ft 1 kts 100°
2026-05-04 23:08 42.37135 -71.02325 20 ft 0 kts 86°
2026-05-04 23:11 42.37136 -71.02321 20 ft 0 kts 86°
2026-05-04 23:12 42.37136 -71.02316 20 ft 0 kts 86°
2026-05-04 23:12 42.37138 -71.02293 20 ft 5 kts 79°
2026-05-04 23:12 42.37159 -71.02235 20 ft 7 kts 55°
2026-05-04 23:12 42.37193 -71.02184 20 ft 7 kts 45°
2026-05-04 23:13 42.37215 -71.02148 20 ft 2 kts 59°
2026-05-04 23:13 42.37222 -71.02127 20 ft 2 kts 66°
2026-05-04 23:13 42.37227 -71.02106 20 ft 2 kts 73°
2026-05-04 23:13 42.37231 -71.02087 20 ft 2 kts 77°
2026-05-04 23:14 42.37233 -71.02067 20 ft 2 kts 85°
2026-05-04 23:14 42.37231 -71.02031 20 ft 5 kts 93°
2026-05-04 23:14 42.37239 -71.01971 20 ft 7 kts 67°
2026-05-04 23:14 42.37276 -71.01898 20 ft 10 kts 60°
2026-05-04 23:15 42.37265 -71.01793 20 ft 13 kts 121°
2026-05-04 23:15 42.37215 -71.01716 20 ft 12 kts 134°
2026-05-04 23:15 42.37155 -71.01633 19 ft 11 kts 134°
2026-05-04 23:15 42.37090 -71.01546 19 ft 13 kts 135°
2026-05-04 23:16 42.37027 -71.01462 19 ft 13 kts 135°
2026-05-04 23:16 42.36958 -71.01371 20 ft 13 kts 136°
2026-05-04 23:16 42.36927 -71.01323 20 ft 4 kts 120°
2026-05-04 23:16 42.36920 -71.01271 20 ft 7 kts 90°
2026-05-04 23:17 42.36933 -71.01194 20 ft 9 kts 70°
2026-05-04 23:17 42.36980 -71.01118 20 ft 9 kts 34°
2026-05-04 23:17 42.37046 -71.01069 19 ft 12 kts 27°
2026-05-04 23:17 42.37132 -71.01013 17 ft 12 kts 25°
2026-05-04 23:18 42.37218 -71.00957 16 ft 7 kts 26°
2026-05-04 23:18 42.37256 -71.00932 16 ft 4 kts 26°
2026-05-04 23:18 42.37290 -71.00910 16 ft 6 kts 25°
2026-05-04 23:18 42.37344 -71.00880 16 ft 9 kts 21°
2026-05-04 23:19 42.37416 -71.00846 16 ft 12 kts 18°
2026-05-04 23:19 42.37506 -71.00806 16 ft 15 kts 19°
2026-05-04 23:19 42.37614 -71.00751 16 ft 17 kts 20°
2026-05-04 23:19 42.37688 -71.00716 16 ft 11 kts 19°
2026-05-04 23:20 42.37759 -71.00683 16 ft 10 kts 19°
2026-05-04 23:20 42.37808 -71.00652 16 ft 4 kts 36°
2026-05-04 23:20 42.37823 -71.00626 16 ft 0 kts 58°
2026-05-04 23:20 42.37830 -71.00607 16 ft 3 kts 72°
2026-05-04 23:21 42.37830 -71.00560 16 ft 6 kts 98°
2026-05-04 23:21 42.37806 -71.00495 16 ft 8 kts 135°
2026-05-04 23:21 42.37758 -71.00489 16 ft 8 kts 197°
2026-05-04 23:21 42.37694 -71.00518 16 ft 10 kts 199°
2026-05-04 23:22 42.37623 -71.00552 16 ft 10 kts 199°
2026-05-04 23:22 42.37526 -71.00596 16 ft 34 kts 199°
2026-05-04 23:22 42.37058 -71.00826 19 ft 106 kts 200°
2026-05-04 23:22 42.36156 -71.01260 24 ft 164 kts 200°
2026-05-04 23:23 42.35041 -71.01798 533 ft 174 kts 199°
2026-05-04 23:23 42.33792 -71.01959 1048 ft 190 kts 171°
2026-05-04 23:23 42.32560 -71.01242 1578 ft 210 kts 136°
2026-05-04 23:23 42.31906 -70.99345 1948 ft 241 kts 99°
2026-05-04 23:24 42.31628 -70.97010 2208 ft 259 kts 99°
2026-05-04 23:24 42.31536 -70.94596 2576 ft 259 kts 84°
2026-05-04 23:24 42.31795 -70.92179 2988 ft 261 kts 81°
2026-05-04 23:24 42.32118 -70.89750 3421 ft 262 kts 79°
2026-05-04 23:25 42.32457 -70.87362 3919 ft 264 kts 79°
2026-05-04 23:25 42.32817 -70.84897 4427 ft 266 kts 79°
2026-05-04 23:25 42.33179 -70.82444 4970 ft 268 kts 79°
2026-05-04 23:25 42.33544 -70.79989 5597 ft 270 kts 78°
2026-05-04 23:26 42.33962 -70.77535 6202 ft 273 kts 70°
2026-05-04 23:26 42.35033 -70.75433 6817 ft 275 kts 39°
2026-05-04 23:26 42.36705 -70.74243 7445 ft 278 kts 17°
2026-05-04 23:26 42.38571 -70.73508 8084 ft 280 kts 16°
2026-05-04 23:27 42.40448 -70.72768 8714 ft 283 kts 16°
2026-05-04 23:27 42.42334 -70.72005 9342 ft 286 kts 17°
2026-05-04 23:27 42.44231 -70.71229 9968 ft 291 kts 15°
2026-05-04 23:27 42.46220 -70.70564 10602 ft 298 kts 12°
2026-05-04 23:28 42.48240 -70.69961 11228 ft 304 kts 12°
2026-05-04 23:28 42.50313 -70.69347 11856 ft 311 kts 12°
2026-05-04 23:28 42.52447 -70.68713 12489 ft 317 kts 12°
2026-05-04 23:28 42.54600 -70.68068 13119 ft 325 kts 12°
2026-05-04 23:29 42.56856 -70.67397 13755 ft 339 kts 12°
2026-05-04 23:29 42.59199 -70.66700 14391 ft 352 kts 12°
2026-05-04 23:29 42.61610 -70.65976 15022 ft 365 kts 12°
2026-05-04 23:29 42.64141 -70.65213 15660 ft 378 kts 12°
2026-05-04 23:30 42.66711 -70.64441 16286 ft 390 kts 11°
2026-05-04 23:30 42.69407 -70.63766 16918 ft 403 kts
2026-05-04 23:30 42.72231 -70.63134 17556 ft 416 kts
2026-05-04 23:30 42.75104 -70.62485 18177 ft 428 kts 11°
2026-05-04 23:31 42.77913 -70.61112 18781 ft 434 kts 29°
2026-05-04 23:31 42.80259 -70.58609 19404 ft 437 kts 47°
2026-05-04 23:31 42.81971 -70.55180 20033 ft 440 kts 64°
2026-05-04 23:31 42.83132 -70.51321 20685 ft 443 kts 68°
2026-05-04 23:32 42.84242 -70.47450 21306 ft 446 kts 68°
2026-05-04 23:32 42.85371 -70.43511 21934 ft 448 kts 68°
2026-05-04 23:32 42.86518 -70.39538 22565 ft 451 kts 68°
2026-05-04 23:32 42.87679 -70.35545 23198 ft 455 kts 68°
2026-05-04 23:33 42.88847 -70.31531 23827 ft 463 kts 68°
2026-05-04 23:33 42.90042 -70.27428 24458 ft 471 kts 68°
2026-05-04 23:33 42.91262 -70.23248 25091 ft 479 kts 68°
2026-05-04 23:33 42.92497 -70.19009 25722 ft 486 kts 68°
2026-05-04 23:34 42.93739 -70.14749 26344 ft 490 kts 68°
2026-05-04 23:34 42.94069 -70.13618 26509 ft 491 kts 69°
2026-05-04 23:34 42.95424 -70.09084 27163 ft 493 kts 74°
2026-05-04 23:34 42.96684 -70.04765 27744 ft 497 kts 75°
2026-05-04 23:35 42.97449 -70.02108 28043 ft 501 kts 75°
2026-05-04 23:35 42.98731 -69.97646 28552 ft 506 kts 75°
2026-05-04 23:35 43.00014 -69.93173 28978 ft 512 kts 75°
2026-05-04 23:35 43.01331 -69.88582 29363 ft 520 kts 75°
2026-05-04 23:36 43.02643 -69.84010 29741 ft 526 kts 75°
2026-05-04 23:36 43.03990 -69.79324 30123 ft 532 kts 75°
2026-05-04 23:36 43.05354 -69.74571 30507 ft 537 kts 75°
2026-05-04 23:36 43.06710 -69.69849 30885 ft 538 kts 75°
2026-05-04 23:37 43.08084 -69.65061 31264 ft 539 kts 75°
2026-05-04 23:37 43.09441 -69.60330 31633 ft 535 kts 75°
2026-05-04 23:37 43.10760 -69.55748 31998 ft 527 kts 75°
2026-05-04 23:37 43.12101 -69.51122 32370 ft 527 kts 75°
2026-05-04 23:38 43.13439 -69.46484 32748 ft 525 kts 75°
2026-05-04 23:38 43.14784 -69.41795 33127 ft 524 kts 75°
2026-05-04 23:38 43.16090 -69.37218 33501 ft 521 kts 76°
2026-05-04 23:38 43.17393 -69.32629 33878 ft 519 kts 76°
2026-05-04 23:39 43.18689 -69.28039 34254 ft 516 kts 77°
2026-05-04 23:39 43.19984 -69.23435 34632 ft 512 kts 77°
2026-05-04 23:39 43.21251 -69.18924 35003 ft 509 kts 77°
2026-05-04 23:39 43.22519 -69.14400 35377 ft 505 kts 77°
2026-05-04 23:40 43.23757 -69.09982 35744 ft 501 kts 77°
2026-05-04 23:40 43.24994 -69.05547 36112 ft 497 kts 76°
2026-05-04 23:40 43.26225 -69.01116 36482 ft 494 kts 76°
2026-05-04 23:40 43.27433 -68.96763 36774 ft 493 kts 76°
2026-05-04 23:41 43.29885 -68.87888 36811 ft 503 kts 75°
2026-05-04 23:41 43.32392 -68.78837 36817 ft 513 kts 75°
2026-05-04 23:42 43.34943 -68.69604 36820 ft 523 kts 74°
2026-05-04 23:42 43.37543 -68.60151 36818 ft 532 kts 74°
2026-05-04 23:43 43.40145 -68.50663 36817 ft 532 kts 74°
2026-05-04 23:43 43.42739 -68.41166 36813 ft 531 kts 74°
2026-05-04 23:44 43.45322 -68.31659 36815 ft 531 kts 75°
2026-05-04 23:44 43.47875 -68.22199 36816 ft 530 kts 75°
2026-05-04 23:45 43.50441 -68.12662 36815 ft 531 kts 75°
2026-05-04 23:45 43.52989 -68.03172 36814 ft 531 kts 75°
2026-05-04 23:46 43.55544 -67.93622 36815 ft 531 kts 75°
2026-05-04 23:46 43.58080 -67.84096 36815 ft 531 kts 75°
2026-05-04 23:47 43.60604 -67.74572 36816 ft 530 kts 75°
2026-05-04 23:47 43.63124 -67.65028 36815 ft 530 kts 75°
2026-05-04 23:48 43.65643 -67.55460 36815 ft 531 kts 75°
2026-05-04 23:48 43.68149 -67.45910 36815 ft 531 kts 75°
2026-05-04 23:49 43.70638 -67.36382 36816 ft 531 kts 75°
2026-05-04 23:49 43.73120 -67.26816 36826 ft 530 kts 76°
2026-05-04 23:50 43.75584 -67.17271 36839 ft 530 kts 76°
2026-05-04 23:50 43.78037 -67.07729 36851 ft 529 kts 75°
2026-05-04 23:51 43.80490 -66.98154 36856 ft 527 kts 75°
2026-05-04 23:51 43.82933 -66.88606 36859 ft 527 kts 74°
2026-05-04 23:52 43.85358 -66.79107 36861 ft 527 kts 74°
2026-05-04 23:52 43.87790 -66.69526 36860 ft 527 kts 74°
2026-05-04 23:53 43.90197 -66.60002 36861 ft 527 kts 74°
2026-05-04 23:53 43.92612 -66.50401 36861 ft 527 kts 74°
2026-05-04 23:54 43.95016 -66.40816 36861 ft 526 kts 74°
2026-05-04 23:54 43.97414 -66.31209 36861 ft 526 kts 75°
2026-05-04 23:55 43.99798 -66.21582 36861 ft 526 kts 75°
2026-05-04 23:56 44.03361 -66.07158 36861 ft 526 kts 75°
2026-05-04 23:56 44.05736 -65.97491 36861 ft 526 kts 75°
2026-05-04 23:57 44.08084 -65.87905 36861 ft 526 kts 75°
2026-05-04 23:57 44.10442 -65.78240 36858 ft 526 kts 75°
2026-05-04 23:58 44.12806 -65.68646 36861 ft 526 kts 75°
2026-05-04 23:58 44.15164 -65.58991 36861 ft 526 kts 75°
2026-05-04 23:59 44.17501 -65.49318 36861 ft 526 kts 75°
2026-05-04 23:59 44.19815 -65.39678 36861 ft 526 kts 75°
2026-05-05 00:00 44.22118 -65.30026 36854 ft 525 kts 76°
2026-05-05 00:00 44.24410 -65.20362 36842 ft 525 kts 76°
2026-05-05 00:01 44.26694 -65.10700 36827 ft 525 kts 76°
2026-05-05 00:01 44.28977 -65.01002 36815 ft 525 kts 76°
2026-05-05 00:02 44.31234 -64.91340 36809 ft 522 kts 75°
2026-05-05 00:02 44.33472 -64.81751 36807 ft 519 kts 74°
2026-05-05 00:03 44.35706 -64.72163 36806 ft 517 kts 73°
2026-05-05 00:03 44.37926 -64.62611 36806 ft 517 kts 73°
2026-05-05 00:04 44.40133 -64.53052 36806 ft 517 kts 73°
2026-05-05 00:04 44.42328 -64.43494 36808 ft 516 kts 73°
2026-05-05 00:05 44.44510 -64.33954 36810 ft 516 kts 74°
2026-05-05 00:05 44.46685 -64.24378 36811 ft 516 kts 74°
2026-05-05 00:06 44.48848 -64.14815 36817 ft 516 kts 74°
2026-05-05 00:06 44.51017 -64.05197 36825 ft 516 kts 74°
2026-05-05 00:07 44.53168 -63.95618 36831 ft 516 kts 74°
2026-05-05 00:07 44.55311 -63.86034 36832 ft 516 kts 74°
2026-05-05 00:08 44.57383 -63.76726 36832 ft 516 kts 74°
2026-05-05 00:08 44.59503 -63.67147 36833 ft 516 kts 74°
2026-05-05 00:09 44.61606 -63.57601 36832 ft 516 kts 74°
2026-05-05 00:09 44.63707 -63.48032 36832 ft 516 kts 74°
2026-05-05 00:10 44.65802 -63.38448 36832 ft 516 kts 74°
2026-05-05 00:10 44.67677 -63.29827 36831 ft 516 kts 75°
2026-05-05 00:11 44.69741 -63.20274 36828 ft 516 kts 75°
2026-05-05 00:11 44.71821 -63.10616 36823 ft 516 kts 75°
2026-05-05 00:12 44.73886 -63.00987 36818 ft 518 kts 75°
2026-05-05 00:12 44.75961 -62.91265 36814 ft 521 kts 75°
2026-05-05 00:13 44.78022 -62.81571 36811 ft 523 kts 75°
2026-05-05 00:13 44.80110 -62.71716 36809 ft 523 kts 75°
2026-05-05 00:14 44.82174 -62.61920 36816 ft 523 kts 75°
2026-05-05 00:14 44.84226 -62.52132 36823 ft 523 kts 75°
2026-05-05 00:15 44.86277 -62.42301 36821 ft 523 kts 75°
2026-05-05 00:15 44.88316 -62.32497 36814 ft 523 kts 75°
2026-05-05 00:16 44.90346 -62.22660 36800 ft 523 kts 75°
2026-05-05 00:16 44.92353 -62.12886 36776 ft 522 kts 75°
2026-05-05 00:17 44.94368 -62.03038 36757 ft 523 kts 75°
2026-05-05 00:17 44.96376 -61.93176 36749 ft 523 kts 75°
2026-05-05 00:18 44.98371 -61.83336 36745 ft 524 kts 75°
2026-05-05 00:18 45.00359 -61.73486 36741 ft 524 kts 75°
2026-05-05 00:19 45.02344 -61.63600 36741 ft 524 kts 75°
2026-05-05 00:19 45.04330 -61.53649 36741 ft 525 kts 75°
2026-05-05 00:20 45.06294 -61.43762 36741 ft 525 kts 75°
2026-05-05 00:20 45.08263 -61.33787 36741 ft 526 kts 76°
2026-05-05 00:21 45.10179 -61.24009 36741 ft 526 kts 76°
2026-05-05 00:21 45.12190 -61.13864 36741 ft 528 kts 75°
2026-05-05 00:22 45.14160 -61.03807 36743 ft 530 kts 74°
2026-05-05 00:22 45.16099 -60.93815 36740 ft 528 kts 73°
2026-05-05 00:23 45.18042 -60.83786 36743 ft 528 kts 73°
2026-05-05 00:23 45.19977 -60.73729 36742 ft 528 kts 73°
2026-05-05 00:24 45.21898 -60.63672 36742 ft 528 kts 73°
2026-05-05 00:24 45.23799 -60.53657 36742 ft 528 kts 73°
2026-05-05 00:25 45.25712 -60.43536 36743 ft 528 kts 73°
2026-05-05 00:25 45.27597 -60.33482 36732 ft 528 kts 74°
2026-05-05 00:26 45.29466 -60.23426 36716 ft 528 kts 75°
2026-05-05 00:26 45.31331 -60.13345 36702 ft 528 kts 74°
2026-05-05 00:27 45.33200 -60.03216 36695 ft 528 kts 74°
2026-05-05 00:27 45.35056 -59.93113 36690 ft 528 kts 74°
2026-05-05 00:28 45.36899 -59.83026 36694 ft 528 kts 74°
2026-05-05 00:28 45.38741 -59.72896 36693 ft 529 kts 74°
2026-05-05 00:29 45.40568 -59.62781 36696 ft 528 kts 74°
2026-05-05 00:29 45.42392 -59.52635 36694 ft 528 kts 74°
2026-05-05 00:30 45.44199 -59.42529 36693 ft 528 kts 74°
2026-05-05 00:30 45.46008 -59.32352 36695 ft 528 kts 75°
2026-05-05 00:31 45.47794 -59.22212 36694 ft 528 kts 75°
2026-05-05 00:31 45.49574 -59.12052 36694 ft 529 kts 75°
2026-05-05 00:32 45.51347 -59.01890 36693 ft 528 kts 75°
2026-05-05 00:32 45.53104 -58.91727 36693 ft 529 kts 74°
2026-05-05 00:33 45.54850 -58.81591 36694 ft 527 kts 73°
2026-05-05 00:33 45.56587 -58.71482 36692 ft 525 kts 73°
2026-05-05 00:34 45.58325 -58.61343 36694 ft 525 kts 73°
2026-05-05 00:34 45.60041 -58.51237 36694 ft 524 kts 73°
2026-05-05 00:35 45.61751 -58.41093 36711 ft 524 kts 73°
2026-05-05 00:35 45.63450 -58.30956 36717 ft 524 kts 74°
2026-05-05 00:36 45.65130 -58.20840 36719 ft 525 kts 74°
2026-05-05 00:36 45.66804 -58.10719 36720 ft 524 kts 74°
2026-05-05 00:37 45.68478 -58.00555 36723 ft 524 kts 74°
2026-05-05 00:37 45.70130 -57.90453 36728 ft 524 kts 74°
2026-05-05 00:38 45.71781 -57.80298 36741 ft 525 kts 74°
2026-05-05 00:38 45.73423 -57.70139 36748 ft 524 kts 74°
2026-05-05 00:39 45.75046 -57.60046 36753 ft 524 kts 74°
2026-05-05 00:39 45.76675 -57.49861 36753 ft 524 kts 74°
2026-05-05 00:40 45.78294 -57.39671 36754 ft 524 kts 74°
2026-05-05 00:40 45.79897 -57.29505 36752 ft 525 kts 75°
2026-05-05 00:41 45.81490 -57.19333 36754 ft 524 kts 75°
2026-05-05 00:41 45.83069 -57.09205 36753 ft 525 kts 75°
2026-05-05 00:42 45.84655 -56.98961 36753 ft 526 kts 74°
2026-05-05 00:42 45.86232 -56.88722 36754 ft 527 kts 74°
2026-05-05 00:43 45.87799 -56.78489 36754 ft 527 kts 74°
2026-05-05 00:43 45.89359 -56.68236 36755 ft 527 kts 74°
2026-05-05 00:44 45.90908 -56.57973 36754 ft 527 kts 74°
2026-05-05 00:44 45.92443 -56.47753 36754 ft 527 kts 74°
2026-05-05 00:45 45.93982 -56.37423 36754 ft 527 kts 74°
2026-05-05 00:45 45.95504 -56.27146 36754 ft 527 kts 75°
2026-05-05 00:46 45.97008 -56.16886 36755 ft 528 kts 75°
2026-05-05 00:46 45.98512 -56.06589 36755 ft 528 kts 75°
2026-05-05 00:47 46.00016 -55.96230 36755 ft 528 kts 75°
2026-05-05 00:47 46.01503 -55.85912 36754 ft 528 kts 75°
2026-05-05 00:48 46.02974 -55.75642 36754 ft 528 kts 75°
2026-05-05 00:48 46.04449 -55.65279 36754 ft 528 kts 75°
2026-05-05 00:49 46.05899 -55.55014 36754 ft 528 kts 75°
2026-05-05 00:49 46.07355 -55.44642 36754 ft 527 kts 75°
2026-05-05 00:50 46.08793 -55.34322 36753 ft 527 kts 76°
2026-05-05 00:50 46.10225 -55.23960 36756 ft 528 kts 76°
2026-05-05 00:51 46.11667 -55.13646 36755 ft 528 kts 75°
2026-05-05 00:51 46.13096 -55.03272 36755 ft 528 kts 75°
2026-05-05 00:52 46.14503 -54.92916 36754 ft 527 kts 74°
2026-05-05 00:52 46.15905 -54.82529 36755 ft 527 kts 74°
2026-05-05 00:53 46.17289 -54.72195 36754 ft 527 kts 74°
2026-05-05 00:53 46.18673 -54.61765 36755 ft 527 kts 74°
2026-05-05 00:54 46.20033 -54.51417 36755 ft 527 kts 74°
2026-05-05 00:54 46.21386 -54.41038 36755 ft 527 kts 74°
2026-05-05 00:55 46.22732 -54.30645 36754 ft 528 kts 75°
2026-05-05 00:55 46.24061 -54.20269 36754 ft 528 kts 75°
2026-05-05 00:56 46.25393 -54.09811 36743 ft 527 kts 75°
2026-05-05 00:56 46.26718 -53.99351 36717 ft 527 kts 75°
2026-05-05 00:57 46.28032 -53.88918 36693 ft 528 kts 75°
2026-05-05 00:57 46.29333 -53.78487 36681 ft 528 kts 75°
2026-05-05 00:58 46.30630 -53.68015 36678 ft 528 kts 75°
2026-05-05 00:58 46.31908 -53.57595 36677 ft 528 kts 75°
2026-05-05 00:59 46.33186 -53.47099 36677 ft 528 kts 75°
2026-05-05 00:59 46.34446 -53.36653 36676 ft 528 kts 75°
2026-05-05 01:00 46.35694 -53.26197 36676 ft 528 kts 76°
2026-05-05 01:00 46.36935 -53.15731 36676 ft 528 kts 76°
2026-05-05 01:01 46.38176 -53.05211 36675 ft 528 kts 76°
2026-05-05 01:01 46.39393 -52.94780 36674 ft 530 kts 76°
2026-05-05 01:02 46.40619 -52.84197 36675 ft 532 kts 75°
2026-05-05 01:02 46.41845 -52.73568 36676 ft 535 kts 75°
2026-05-05 01:03 46.43054 -52.62986 36676 ft 535 kts 75°
2026-05-05 01:03 46.44262 -52.52300 36676 ft 535 kts 75°
2026-05-05 01:04 46.45452 -52.41661 36676 ft 535 kts 75°
2026-05-05 01:04 46.47216 -52.25709 36676 ft 536 kts 76°
2026-05-05 01:05 46.48402 -52.15050 36677 ft 534 kts 74°
2026-05-05 01:05 46.50082 -52.04631 36676 ft 529 kts 68°
2026-05-05 01:06 46.52496 -51.94619 36676 ft 523 kts 62°
2026-05-05 01:06 46.55606 -51.85114 36677 ft 517 kts 56°
2026-05-05 01:07 46.59065 -51.75990 36677 ft 517 kts 54°
2026-05-05 01:07 46.62548 -51.66857 36676 ft 517 kts 54°
2026-05-05 01:08 46.66013 -51.57704 36677 ft 517 kts 54°
2026-05-05 01:08 46.69486 -51.48474 36676 ft 517 kts 54°
2026-05-05 01:09 46.72903 -51.39350 36675 ft 517 kts 54°
2026-05-05 01:09 46.76355 -51.30086 36676 ft 518 kts 56°
2026-05-05 01:10 46.79765 -51.20879 36677 ft 518 kts 56°
2026-05-05 01:10 46.83181 -51.11641 36676 ft 517 kts 56°
2026-05-05 01:11 46.86613 -51.02323 36678 ft 517 kts 54°
2026-05-05 01:11 46.89988 -50.93126 36676 ft 516 kts 54°
2026-05-05 01:12 46.93378 -50.83865 36676 ft 516 kts 53°
2026-05-05 01:12 46.96770 -50.74601 36676 ft 517 kts 52°
2026-05-05 01:13 47.00172 -50.65269 36675 ft 519 kts 52°
2026-05-05 01:13 47.03546 -50.55980 36675 ft 521 kts 51°
2026-05-05 01:14 47.06950 -50.46578 36676 ft 522 kts 51°
2026-05-05 01:14 47.10348 -50.37167 36677 ft 521 kts 51°
2026-05-05 01:15 47.13751 -50.27752 36675 ft 523 kts 52°
2026-05-05 01:15 47.17142 -50.18298 36676 ft 523 kts 52°
2026-05-05 01:16 47.20516 -50.08843 36676 ft 523 kts 52°
2026-05-05 01:16 47.23882 -49.99366 36676 ft 523 kts 52°
2026-05-05 01:17 47.27244 -49.89869 36676 ft 523 kts 52°
2026-05-05 01:17 47.30593 -49.80373 36676 ft 523 kts 52°
2026-05-05 01:18 47.33937 -49.70858 36676 ft 523 kts 52°
2026-05-05 01:18 47.37275 -49.61317 36676 ft 523 kts 52°
2026-05-05 01:19 47.40590 -49.51805 36676 ft 523 kts 52°
2026-05-05 01:19 47.43909 -49.42246 36676 ft 523 kts 52°
2026-05-05 01:20 47.47212 -49.32700 36672 ft 523 kts 53°
2026-05-05 01:20 47.50510 -49.23097 36674 ft 524 kts 53°
2026-05-05 01:21 47.53797 -49.13504 36676 ft 524 kts 53°
2026-05-05 01:21 47.57088 -49.03893 36676 ft 525 kts 53°
2026-05-05 01:22 47.60388 -48.94226 36677 ft 525 kts 53°
2026-05-05 01:22 47.63676 -48.84563 36675 ft 525 kts 53°
2026-05-05 01:23 47.66953 -48.74909 36676 ft 525 kts 53°
2026-05-05 01:23 47.70248 -48.65162 36676 ft 525 kts 53°
2026-05-05 01:24 47.73491 -48.55523 36677 ft 525 kts 53°
2026-05-05 01:24 47.76759 -48.45780 36676 ft 525 kts 53°
2026-05-05 01:25 47.79988 -48.36113 36676 ft 525 kts 53°
2026-05-05 01:25 47.83220 -48.26368 36676 ft 527 kts 54°
2026-05-05 01:26 47.86451 -48.16577 36676 ft 527 kts 53°
2026-05-05 01:26 47.89668 -48.06810 36677 ft 526 kts 53°
2026-05-05 01:27 47.92905 -47.96959 36676 ft 526 kts 53°
2026-05-05 01:27 47.96103 -47.87191 36676 ft 526 kts 53°
2026-05-05 01:28 47.99301 -47.77391 36676 ft 526 kts 53°
2026-05-05 01:28 48.02506 -47.67530 36676 ft 526 kts 53°
2026-05-05 01:29 48.05687 -47.57707 36675 ft 526 kts 53°
2026-05-05 01:29 48.08863 -47.47859 36675 ft 526 kts 53°
2026-05-05 01:30 48.12055 -47.37962 36676 ft 526 kts 53°
2026-05-05 01:30 48.15234 -47.28093 36675 ft 527 kts 54°
2026-05-05 01:31 48.18394 -47.18185 36676 ft 527 kts 54°
2026-05-05 01:31 48.21540 -47.08270 36676 ft 527 kts 54°
2026-05-05 01:32 48.24663 -46.98390 36676 ft 527 kts 54°
2026-05-05 01:32 48.27797 -46.88443 36676 ft 527 kts 54°
2026-05-05 01:33 48.30933 -46.78451 36676 ft 527 kts 54°
2026-05-05 01:33 48.34048 -46.68488 36676 ft 527 kts 54°
2026-05-05 01:34 48.37166 -46.58470 36676 ft 527 kts 54°
2026-05-05 01:34 48.40253 -46.48516 36689 ft 529 kts 54°
2026-05-05 01:35 48.43347 -46.38484 36708 ft 529 kts 54°
2026-05-05 01:35 48.46434 -46.28426 36715 ft 530 kts 55°
2026-05-05 01:36 48.49512 -46.18331 36719 ft 530 kts 55°
2026-05-05 01:36 48.52597 -46.08199 36721 ft 530 kts 55°
2026-05-05 01:37 48.55666 -45.98090 36721 ft 530 kts 55°
2026-05-05 01:37 48.58725 -45.87975 36721 ft 530 kts 55°
2026-05-05 01:38 48.61758 -45.77894 36721 ft 530 kts 55°
2026-05-05 01:38 48.64819 -45.67695 36721 ft 530 kts 55°
2026-05-05 01:39 48.67842 -45.57579 36720 ft 530 kts 55°
2026-05-05 01:39 48.70887 -45.47349 36721 ft 530 kts 55°
2026-05-05 01:40 48.73902 -45.37174 36721 ft 530 kts 55°
2026-05-05 01:40 48.76897 -45.26999 36719 ft 531 kts 56°
2026-05-05 01:41 48.79900 -45.16738 36721 ft 531 kts 56°
2026-05-05 01:41 48.82900 -45.06473 36720 ft 531 kts 56°
2026-05-05 01:42 48.85909 -44.96183 36720 ft 533 kts 57°
2026-05-05 01:42 48.88892 -44.85925 36721 ft 534 kts 58°
2026-05-05 01:43 48.91890 -44.75521 36720 ft 534 kts 58°
2026-05-05 01:43 48.94855 -44.65185 36720 ft 534 kts 58°
2026-05-05 01:44 48.97818 -44.54823 36721 ft 533 kts 58°
2026-05-05 01:44 49.00771 -44.44446 36721 ft 529 kts 58°
2026-05-05 01:45 49.03674 -44.34215 36720 ft 525 kts 58°
2026-05-05 01:45 49.06537 -44.24047 36722 ft 521 kts 58°
2026-05-05 01:46 49.09377 -44.13925 36722 ft 517 kts 58°
2026-05-05 01:46 49.12195 -44.03924 36723 ft 512 kts 58°
2026-05-05 01:47 49.15005 -43.93963 36721 ft 511 kts 58°
2026-05-05 01:47 49.17791 -43.83997 36721 ft 511 kts 58°
2026-05-05 01:48 49.20566 -43.73993 36721 ft 511 kts 58°
2026-05-05 01:48 49.23337 -43.63944 36721 ft 511 kts 58°
2026-05-05 01:49 49.26082 -43.53942 36721 ft 511 kts 58°
2026-05-05 01:49 49.28828 -43.43886 36721 ft 511 kts 58°
2026-05-05 01:50 49.31550 -43.33879 36718 ft 511 kts 59°
2026-05-05 01:50 49.34277 -43.23770 36720 ft 512 kts 59°
2026-05-05 01:51 49.36983 -43.13704 36719 ft 513 kts 58°
2026-05-05 01:51 49.39713 -43.03527 36719 ft 519 kts 58°
2026-05-05 01:52 49.42477 -42.93185 36720 ft 525 kts 58°
2026-05-05 01:52 49.45258 -42.82732 36721 ft 526 kts 58°
2026-05-05 01:53 49.48007 -42.72355 36721 ft 526 kts 58°
2026-05-05 01:53 49.50752 -42.61946 36721 ft 526 kts 58°
2026-05-05 01:54 49.53500 -42.51478 36721 ft 526 kts 58°
2026-05-05 01:54 49.56233 -42.41032 36721 ft 526 kts 58°
2026-05-05 01:55 49.58949 -42.30593 36720 ft 526 kts 59°
2026-05-05 01:55 49.61665 -42.20071 36721 ft 527 kts 59°
2026-05-05 01:56 49.64358 -42.09598 36721 ft 527 kts 59°
2026-05-05 01:56 49.67065 -41.99046 36721 ft 527 kts 59°
2026-05-05 01:57 49.69752 -41.88529 36721 ft 527 kts 59°
2026-05-05 01:57 49.72417 -41.78048 36721 ft 527 kts 59°
2026-05-05 01:58 49.75087 -41.67495 36721 ft 526 kts 59°
2026-05-05 01:58 49.77754 -41.56912 36720 ft 526 kts 59°
2026-05-05 01:59 49.80409 -41.46327 36720 ft 526 kts 59°
2026-05-05 01:59 49.83042 -41.35771 36720 ft 526 kts 59°
2026-05-05 02:00 49.85668 -41.25170 36721 ft 528 kts 59°
2026-05-05 02:00 49.88289 -41.14522 36721 ft 528 kts 59°
2026-05-05 02:01 49.90898 -41.03893 36721 ft 527 kts 59°
2026-05-05 02:01 49.93509 -40.93238 36755 ft 533 kts 59°
2026-05-05 02:02 49.96149 -40.82430 36887 ft 539 kts 59°
2026-05-05 02:02 49.98803 -40.71498 37037 ft 544 kts 60°
2026-05-05 02:03 50.01472 -40.60426 37112 ft 545 kts 60°
2026-05-05 02:03 50.04119 -40.49374 37144 ft 545 kts 60°
2026-05-05 02:04 50.06752 -40.38351 37157 ft 545 kts 60°
2026-05-05 02:04 50.09386 -40.27258 37162 ft 546 kts 60°
2026-05-05 02:05 50.12030 -40.16130 37166 ft 545 kts 60°
2026-05-05 02:05 50.14642 -40.05119 37166 ft 545 kts 60°
2026-05-05 02:06 50.17255 -39.93990 37166 ft 545 kts 60°
2026-05-05 02:06 50.19847 -39.82863 37166 ft 545 kts 60°
2026-05-05 02:07 50.22430 -39.71703 37166 ft 545 kts 60°
2026-05-05 02:07 50.24994 -39.60571 37166 ft 545 kts 60°
2026-05-05 02:08 50.27568 -39.49342 37166 ft 545 kts 60°
2026-05-05 02:08 50.30116 -39.38164 37167 ft 545 kts 60°
2026-05-05 02:09 50.32645 -39.26989 37165 ft 547 kts 62°
2026-05-05 02:09 50.35170 -39.15745 37166 ft 546 kts 62°
2026-05-05 02:10 50.37680 -39.04537 37165 ft 547 kts 62°
2026-05-05 02:10 50.40207 -38.93243 37165 ft 550 kts 62°
2026-05-05 02:11 50.42739 -38.81865 37166 ft 552 kts 63°
2026-05-05 02:11 50.45239 -38.70514 37166 ft 552 kts 63°
2026-05-05 02:12 50.48980 -38.53432 37166 ft 552 kts 63°
2026-05-05 02:13 50.51470 -38.41989 37166 ft 552 kts 63°
2026-05-05 02:13 50.53947 -38.30539 37164 ft 553 kts 64°
2026-05-05 02:14 50.56402 -38.19089 37166 ft 553 kts 64°
2026-05-05 02:14 50.58850 -38.07621 37166 ft 553 kts 64°
2026-05-05 02:15 50.61283 -37.96177 37166 ft 553 kts 64°
2026-05-05 02:15 50.63713 -37.84696 37166 ft 553 kts 64°
2026-05-05 02:16 50.66138 -37.73169 37166 ft 553 kts 64°
2026-05-05 02:16 50.68544 -37.61670 37166 ft 553 kts 64°
2026-05-05 02:17 50.70941 -37.50144 37166 ft 553 kts 64°
2026-05-05 02:17 50.73339 -37.38553 37166 ft 553 kts 64°
2026-05-05 02:18 50.75702 -37.27043 37165 ft 554 kts 65°
2026-05-05 02:18 50.78069 -37.15428 37166 ft 554 kts 65°
2026-05-05 02:19 50.80435 -37.03817 37166 ft 554 kts 66°
2026-05-05 02:19 50.82783 -36.92213 37166 ft 554 kts 66°
2026-05-05 02:20 50.85104 -36.80631 37166 ft 554 kts 66°
2026-05-05 02:20 50.87430 -36.68960 37166 ft 554 kts 66°
2026-05-05 02:21 50.89739 -36.57317 37167 ft 553 kts 66°
2026-05-05 02:21 50.92025 -36.45719 37166 ft 550 kts 66°
2026-05-05 02:22 50.94284 -36.34176 37165 ft 547 kts 68°
2026-05-05 02:22 50.96514 -36.22664 37167 ft 545 kts 68°
2026-05-05 02:23 50.98733 -36.11176 37167 ft 542 kts 68°
2026-05-05 02:23 51.00934 -35.99741 37168 ft 539 kts 68°
2026-05-05 02:24 51.03102 -35.88409 37167 ft 537 kts 68°
2026-05-05 02:24 51.05266 -35.77032 37167 ft 535 kts 68°
2026-05-05 02:25 51.07407 -35.65711 37166 ft 535 kts 68°
2026-05-05 02:25 51.09536 -35.54390 37165 ft 535 kts 68°
2026-05-05 02:26 51.11682 -35.43005 37167 ft 535 kts 68°
2026-05-05 02:26 51.13823 -35.31645 37164 ft 535 kts 69°
2026-05-05 02:27 51.15926 -35.20274 37166 ft 536 kts 69°
2026-05-05 02:27 51.18010 -35.08905 37166 ft 536 kts 69°
2026-05-05 02:28 51.20096 -34.97452 37171 ft 537 kts 69°
2026-05-05 02:28 51.22178 -34.85955 37236 ft 540 kts 69°
2026-05-05 02:29 51.24243 -34.74450 37334 ft 541 kts 70°
2026-05-05 02:29 51.26299 -34.62923 37397 ft 541 kts 70°
2026-05-05 02:30 51.28348 -34.51374 37415 ft 540 kts 70°
2026-05-05 02:30 51.30394 -34.39775 37423 ft 540 kts 70°
2026-05-05 02:31 51.32412 -34.28254 37431 ft 541 kts 70°
2026-05-05 02:31 51.34441 -34.16597 37431 ft 541 kts 70°
2026-05-05 02:32 51.36437 -34.05045 37415 ft 540 kts 70°
2026-05-05 02:32 51.38427 -33.93449 37399 ft 541 kts 70°
2026-05-05 02:33 51.40411 -33.81863 37392 ft 541 kts 70°
2026-05-05 02:33 51.42395 -33.70198 37387 ft 541 kts 70°
2026-05-05 02:34 51.44356 -33.58579 37385 ft 541 kts 70°
2026-05-05 02:34 51.46311 -33.46917 37381 ft 541 kts 70°
2026-05-05 02:35 51.48256 -33.35258 37385 ft 543 kts 70°
2026-05-05 02:35 51.50193 -33.23511 37385 ft 544 kts 71°
2026-05-05 02:36 51.52118 -33.11742 37385 ft 543 kts 71°
2026-05-05 02:36 51.54021 -33.00063 37385 ft 544 kts 72°
2026-05-05 02:37 51.55928 -32.88295 37386 ft 544 kts 72°
2026-05-05 02:37 51.57823 -32.76500 37386 ft 545 kts 72°
2026-05-05 02:38 51.59707 -32.64677 37384 ft 544 kts 72°
2026-05-05 02:38 51.61577 -32.52880 37385 ft 544 kts 72°
2026-05-05 02:39 51.63427 -32.41105 37384 ft 544 kts 72°
2026-05-05 02:39 51.65263 -32.29333 37384 ft 544 kts 73°
2026-05-05 02:40 51.67097 -32.17467 37384 ft 545 kts 73°
2026-05-05 02:40 51.68921 -32.05608 37385 ft 544 kts 73°
2026-05-05 02:41 51.70733 -31.93750 37385 ft 545 kts 73°
2026-05-05 02:41 51.72522 -31.81946 37385 ft 545 kts 73°
2026-05-05 02:42 51.74320 -31.69991 37384 ft 545 kts 72°
2026-05-05 02:42 51.76089 -31.58142 37384 ft 544 kts 72°
2026-05-05 02:43 51.77854 -31.46230 37385 ft 544 kts 73°
2026-05-05 02:43 51.79597 -31.34365 37384 ft 544 kts 73°
2026-05-05 02:44 51.81341 -31.22384 37385 ft 545 kts 73°
2026-05-05 02:44 51.83060 -31.10498 37385 ft 546 kts 74°
2026-05-05 02:45 51.84780 -30.98544 37384 ft 547 kts 74°
2026-05-05 02:45 51.86501 -30.86479 37385 ft 549 kts 74°
2026-05-05 02:46 51.88206 -30.74420 37385 ft 549 kts 74°
2026-05-05 02:46 51.89900 -30.62339 37382 ft 549 kts 74°
2026-05-05 02:47 51.91576 -30.50295 37382 ft 549 kts 74°
2026-05-05 02:47 51.93241 -30.38233 37384 ft 548 kts 74°
2026-05-05 02:48 51.94887 -30.26177 37384 ft 548 kts 75°
2026-05-05 02:48 51.96520 -30.14101 37385 ft 549 kts 75°
2026-05-05 02:49 51.98147 -30.01982 37384 ft 548 kts 75°
2026-05-05 02:49 51.99763 -29.89920 37387 ft 549 kts 75°
2026-05-05 02:50 52.01378 -29.77733 37384 ft 549 kts 75°
2026-05-05 02:50 52.02963 -29.65686 37385 ft 549 kts 75°
2026-05-05 02:51 52.04548 -29.53501 37384 ft 549 kts 75°
2026-05-05 02:51 52.06098 -29.41403 37382 ft 549 kts 75°
2026-05-05 02:52 52.07657 -29.29199 37382 ft 549 kts 76°
2026-05-05 02:52 52.09191 -29.17070 37375 ft 549 kts 76°
2026-05-05 02:53 52.10733 -29.04872 37371 ft 549 kts 76°
2026-05-05 02:53 52.12285 -28.92697 37368 ft 551 kts 76°
2026-05-05 02:54 52.13813 -28.80478 37364 ft 552 kts 76°
2026-05-05 02:54 52.15329 -28.68152 37363 ft 554 kts 76°
2026-05-05 02:55 52.16818 -28.55853 37359 ft 553 kts 76°
2026-05-05 02:55 52.18297 -28.43544 37360 ft 554 kts 76°
2026-05-05 02:56 52.19764 -28.31228 37354 ft 554 kts 77°
2026-05-05 02:56 52.21213 -28.18901 37357 ft 554 kts 77°
2026-05-05 02:57 52.22650 -28.06576 37357 ft 554 kts 77°
2026-05-05 02:57 52.24085 -27.94159 37357 ft 554 kts 77°
2026-05-05 02:58 52.25501 -27.81805 37356 ft 554 kts 77°
2026-05-05 02:58 52.26904 -27.69446 37357 ft 554 kts 77°
2026-05-05 02:59 52.28291 -27.57091 37356 ft 554 kts 77°
2026-05-05 02:59 52.29672 -27.44661 37356 ft 554 kts 77°
2026-05-05 03:00 52.31034 -27.32296 37353 ft 554 kts 78°
2026-05-05 03:00 52.32378 -27.19937 37356 ft 554 kts 78°
2026-05-05 03:01 52.33721 -27.07475 37357 ft 555 kts 78°
2026-05-05 03:01 52.35050 -26.95043 37356 ft 556 kts 78°
2026-05-05 03:02 52.36375 -26.82526 37357 ft 558 kts 78°
2026-05-05 03:02 52.37682 -26.70012 37358 ft 558 kts 78°
2026-05-05 03:03 52.38981 -26.57435 37357 ft 558 kts 78°
2026-05-05 03:03 52.40256 -26.44967 37357 ft 558 kts 78°
2026-05-05 03:04 52.41526 -26.32408 37354 ft 558 kts 79°
2026-05-05 03:04 52.42780 -26.19845 37357 ft 558 kts 79°
2026-05-05 03:05 52.44018 -26.07283 37355 ft 558 kts 79°
2026-05-05 03:05 52.45247 -25.94712 37356 ft 558 kts 79°
2026-05-05 03:06 52.46459 -25.82187 37357 ft 558 kts 79°
2026-05-05 03:06 52.47665 -25.69567 37357 ft 558 kts 79°
2026-05-05 03:07 52.48853 -25.56994 37358 ft 558 kts 79°
2026-05-05 03:07 52.50021 -25.44453 37357 ft 558 kts 79°
2026-05-05 03:08 52.51191 -25.31777 37355 ft 558 kts 79°
2026-05-05 03:08 52.52331 -25.19233 37357 ft 558 kts 80°
2026-05-05 03:09 52.53469 -25.06576 37356 ft 560 kts 80°
2026-05-05 03:09 52.54604 -24.93835 37357 ft 563 kts 80°
2026-05-05 03:10 52.55720 -24.81102 37357 ft 563 kts 81°
2026-05-05 03:10 52.56817 -24.68361 37356 ft 563 kts 80°
2026-05-05 03:11 52.57914 -24.55703 37357 ft 563 kts 80°
2026-05-05 03:11 52.59006 -24.42914 37357 ft 563 kts 80°
2026-05-05 03:12 52.60074 -24.30149 37355 ft 563 kts 81°
2026-05-05 03:12 52.61116 -24.17405 37357 ft 563 kts 81°
2026-05-05 03:13 52.62141 -24.04652 37357 ft 563 kts 81°
2026-05-05 03:13 52.63165 -23.91819 37357 ft 563 kts 81°
2026-05-05 03:14 52.64172 -23.79056 37357 ft 563 kts 81°
2026-05-05 03:14 52.65170 -23.66227 37357 ft 563 kts 81°
2026-05-05 03:15 52.66147 -23.53472 37357 ft 563 kts 81°
2026-05-05 03:15 52.67113 -23.40678 37356 ft 563 kts 81°
2026-05-05 03:16 52.68061 -23.27909 37357 ft 563 kts 82°
2026-05-05 03:16 52.68994 -23.15108 37357 ft 563 kts 82°
2026-05-05 03:17 52.69918 -23.02313 37357 ft 563 kts 82°
2026-05-05 03:17 52.70838 -22.89447 37357 ft 565 kts 82°
2026-05-05 03:18 52.71740 -22.76583 37357 ft 566 kts 82°
2026-05-05 03:18 52.72631 -22.63642 37357 ft 566 kts 82°
2026-05-05 03:19 52.73939 -22.44249 37357 ft 566 kts 83°
2026-05-05 03:19 52.74789 -22.31350 37354 ft 566 kts 83°
2026-05-05 03:20 52.75624 -22.18436 37357 ft 566 kts 83°
2026-05-05 03:20 52.76448 -22.05488 37357 ft 566 kts 83°
2026-05-05 03:21 52.77262 -21.92562 37357 ft 566 kts 83°
2026-05-05 03:21 52.78059 -21.79663 37357 ft 566 kts 83°
2026-05-05 03:22 52.78846 -21.66712 37357 ft 566 kts 83°
2026-05-05 03:22 52.79614 -21.53746 37356 ft 566 kts 83°
2026-05-05 03:23 52.80367 -21.40769 37357 ft 566 kts 83°
2026-05-05 03:23 52.81113 -21.27769 37357 ft 566 kts 84°
2026-05-05 03:24 52.81842 -21.14808 37357 ft 566 kts 84°
2026-05-05 03:24 52.82558 -21.01846 37357 ft 567 kts 84°
2026-05-05 03:25 52.83261 -20.88864 37357 ft 568 kts 85°
2026-05-05 03:25 52.83952 -20.75791 37357 ft 569 kts 85°
2026-05-05 03:26 52.84611 -20.62774 37357 ft 569 kts 85°
2026-05-05 03:26 52.85272 -20.49674 37356 ft 569 kts 85°
2026-05-05 03:27 52.85916 -20.36625 37356 ft 569 kts 85°
2026-05-05 03:27 52.86550 -20.23542 37323 ft 568 kts 86°
2026-05-05 03:28 52.87163 -20.10555 37245 ft 568 kts 86°
2026-05-05 03:28 52.87768 -19.97522 37189 ft 569 kts 85°
2026-05-05 03:29 52.88357 -19.84477 37160 ft 569 kts 85°
2026-05-05 03:29 52.88934 -19.71393 37147 ft 569 kts 85°
2026-05-05 03:30 52.89496 -19.58293 37142 ft 569 kts 85°
2026-05-05 03:30 52.90041 -19.45186 37140 ft 570 kts 85°
2026-05-05 03:31 52.90572 -19.32072 37136 ft 569 kts 86°
2026-05-05 03:31 52.91088 -19.18947 37140 ft 569 kts 86°
2026-05-05 03:32 52.91593 -19.05826 37139 ft 571 kts 87°
2026-05-05 03:32 52.92086 -18.92650 37140 ft 574 kts 87°
2026-05-05 03:33 52.92561 -18.79457 37140 ft 574 kts 87°
2026-05-05 03:33 52.93022 -18.66192 37140 ft 575 kts 87°
2026-05-05 03:34 52.93470 -18.52979 37139 ft 574 kts 87°
2026-05-05 03:34 52.93908 -18.39794 37139 ft 573 kts 88°
2026-05-05 03:35 52.94323 -18.26583 37139 ft 573 kts 89°
2026-05-05 03:35 52.94723 -18.13345 37140 ft 573 kts 89°
2026-05-05 03:36 52.95110 -18.00144 37139 ft 573 kts 89°
2026-05-05 03:36 52.95481 -17.86987 37140 ft 573 kts 89°
2026-05-05 03:37 52.95841 -17.73707 37139 ft 573 kts 89°
2026-05-05 03:37 52.96186 -17.60517 37139 ft 573 kts 89°
2026-05-05 03:38 52.96516 -17.47297 37140 ft 572 kts 89°
2026-05-05 03:38 52.96830 -17.34156 37139 ft 572 kts 90°
2026-05-05 03:39 52.97131 -17.20974 37140 ft 571 kts 90°
2026-05-05 03:39 52.97415 -17.07766 37140 ft 571 kts 90°
2026-05-05 03:40 52.97685 -16.94694 37140 ft 571 kts 90°
2026-05-05 03:40 52.97946 -16.81429 37140 ft 572 kts 91°
2026-05-05 03:41 52.98186 -16.68289 37139 ft 572 kts 91°
2026-05-05 03:41 52.98409 -16.55031 37140 ft 572 kts 91°
2026-05-05 03:42 52.98621 -16.41852 37140 ft 572 kts 91°
2026-05-05 03:42 52.98821 -16.28632 37139 ft 571 kts 91°
2026-05-05 03:43 52.99003 -16.15514 37140 ft 571 kts 91°
2026-05-05 03:43 52.99171 -16.02304 37140 ft 571 kts 91°
2026-05-05 03:44 52.99325 -15.89102 37141 ft 570 kts 91°
2026-05-05 03:44 52.99464 -15.75971 37140 ft 570 kts 91°
2026-05-05 03:45 52.99589 -15.62851 37139 ft 569 kts 91°
2026-05-05 03:45 52.99697 -15.49686 37139 ft 570 kts 91°
2026-05-05 03:46 52.99794 -15.36473 37139 ft 570 kts 91°
2026-05-05 03:46 52.99877 -15.23315 37140 ft 569 kts 92°
2026-05-05 03:47 52.99945 -15.10206 37139 ft 569 kts 92°
2026-05-05 03:47 53.00002 -14.97015 37141 ft 573 kts 93°
2026-05-05 03:48 53.00045 -14.83754 37140 ft 575 kts 94°
2026-05-05 03:48 53.00061 -14.70427 37138 ft 576 kts 94°
2026-05-05 03:49 53.00070 -14.57172 37138 ft 576 kts 94°
2026-05-05 03:49 53.00066 -14.43785 37138 ft 576 kts 93°
2026-05-05 03:50 53.00052 -14.30478 37138 ft 575 kts 94°
2026-05-05 03:50 53.00026 -14.17218 37139 ft 576 kts 94°
2026-05-05 03:51 52.99977 -14.03841 37139 ft 576 kts 95°
2026-05-05 03:51 52.99517 -13.90573 37138 ft 573 kts 99°
2026-05-05 03:52 52.98824 -13.77383 37138 ft 573 kts 99°
2026-05-05 03:52 52.98120 -13.64226 37140 ft 575 kts 99°
2026-05-05 03:53 52.97415 -13.50964 37139 ft 576 kts 99°
2026-05-05 03:53 52.96698 -13.37691 37138 ft 578 kts 99°
2026-05-05 03:54 52.95972 -13.24379 37139 ft 578 kts 101°
2026-05-05 03:54 52.95237 -13.11137 37138 ft 581 kts 101°
2026-05-05 03:55 52.94479 -12.97731 37138 ft 585 kts 102°
2026-05-05 03:55 52.93685 -12.84193 37139 ft 589 kts 102°
2026-05-05 03:56 52.92890 -12.70782 37141 ft 587 kts 102°
2026-05-05 03:56 52.92075 -12.57283 37141 ft 587 kts 102°
2026-05-05 03:57 52.91012 -12.43920 37139 ft 583 kts 107°
2026-05-05 03:57 52.89698 -12.31529 37137 ft 583 kts 108°
2026-05-05 03:58 52.88270 -12.18308 37141 ft 582 kts 108°
2026-05-05 03:58 52.86847 -12.05138 37138 ft 581 kts 108°
2026-05-05 03:59 52.85411 -11.91934 37141 ft 582 kts 108°
2026-05-05 03:59 52.83959 -11.78690 37139 ft 582 kts 108°
2026-05-05 04:00 52.82504 -11.65579 37138 ft 582 kts 108°
2026-05-05 04:00 52.81032 -11.52437 37139 ft 583 kts 108°
2026-05-05 04:01 52.79535 -11.39224 37140 ft 583 kts 108°
2026-05-05 04:01 52.78083 -11.26467 37136 ft 581 kts 108°
2026-05-05 04:02 52.76573 -11.13355 37138 ft 581 kts 109°
2026-05-05 04:02 52.75037 -11.00192 37139 ft 581 kts 109°
2026-05-05 04:03 52.73491 -10.87055 37138 ft 586 kts 109°
2026-05-05 04:03 52.71908 -10.73762 37139 ft 590 kts 110°
2026-05-05 04:04 52.70296 -10.60430 37142 ft 592 kts 110°
2026-05-05 04:04 52.68679 -10.47122 37139 ft 591 kts 110°
2026-05-05 04:05 52.67063 -10.33965 37138 ft 591 kts 110°
2026-05-05 04:05 52.65408 -10.20565 37142 ft 591 kts 110°
2026-05-05 04:06 52.63754 -10.07313 37142 ft 591 kts 110°
2026-05-05 04:06 52.62074 -9.94010 37139 ft 591 kts 110°
2026-05-05 04:07 52.60391 -9.80806 37138 ft 591 kts 110°
2026-05-05 04:07 52.58685 -9.67593 37140 ft 592 kts 110°
2026-05-05 04:08 52.56964 -9.54350 37141 ft 592 kts 110°
2026-05-05 04:08 52.55231 -9.41133 37141 ft 591 kts 110°
2026-05-05 04:09 52.53479 -9.27880 37138 ft 590 kts 111°
2026-05-05 04:09 52.51717 -9.14645 37141 ft 590 kts 111°
2026-05-05 04:10 52.49949 -9.01548 37141 ft 591 kts 111°
2026-05-05 04:10 52.48147 -8.88311 37139 ft 591 kts 111°
2026-05-05 04:11 52.46349 -8.75194 37141 ft 591 kts 111°
2026-05-05 04:11 52.44526 -8.62016 37139 ft 591 kts 111°
2026-05-05 04:12 52.42690 -8.48854 37137 ft 591 kts 111°
2026-05-05 04:12 52.40845 -8.35734 37135 ft 592 kts 111°
2026-05-05 04:13 52.38993 -8.22667 37126 ft 590 kts 112°
2026-05-05 04:13 52.37101 -8.09533 37119 ft 591 kts 112°
2026-05-05 04:14 52.35215 -7.96517 37113 ft 590 kts 112°
2026-05-05 04:14 52.33306 -7.83438 37111 ft 590 kts 112°
2026-05-05 04:15 52.31385 -7.70379 37113 ft 591 kts 112°
2026-05-05 04:15 52.29457 -7.57368 37114 ft 591 kts 112°
2026-05-05 04:16 52.27506 -7.44314 37115 ft 591 kts 112°
2026-05-05 04:16 52.25543 -7.31273 37110 ft 590 kts 112°
2026-05-05 04:17 52.23579 -7.18274 37105 ft 589 kts 112°
2026-05-05 04:17 52.21593 -7.05326 37099 ft 592 kts 112°
2026-05-05 04:18 52.19566 -6.92210 37093 ft 593 kts 112°
2026-05-05 04:18 52.17545 -6.79193 37088 ft 593 kts 112°
2026-05-05 04:19 52.15507 -6.66183 37086 ft 594 kts 112°
2026-05-05 04:19 52.13450 -6.53159 37086 ft 593 kts 112°
2026-05-05 04:20 52.11385 -6.40200 37086 ft 594 kts 112°
2026-05-05 04:20 52.09298 -6.27156 37085 ft 593 kts 112°
2026-05-05 04:21 52.07210 -6.14192 37085 ft 593 kts 113°
2026-05-05 04:21 52.05103 -6.01309 37086 ft 592 kts 113°
2026-05-05 04:22 52.02890 -5.88375 37085 ft 591 kts 114°
2026-05-05 04:22 52.00662 -5.75541 37085 ft 592 kts 114°
2026-05-05 04:23 51.98431 -5.62707 37085 ft 592 kts 114°
2026-05-05 04:23 51.96186 -5.49847 37081 ft 592 kts 114°
2026-05-05 04:24 51.93922 -5.36970 37075 ft 593 kts 114°
2026-05-05 04:25 51.90781 -5.17546 37059 ft 598 kts 109°
2026-05-05 04:25 51.89228 -5.04385 37056 ft 599 kts 108°
2026-05-05 04:26 51.87672 -4.91090 37054 ft 600 kts 107°
2026-05-05 04:26 51.86108 -4.77885 37065 ft 602 kts 107°
2026-05-05 04:27 51.84502 -4.64592 37077 ft 603 kts 107°
2026-05-05 04:27 51.82881 -4.51362 37081 ft 603 kts 107°
2026-05-05 04:28 51.81252 -4.38101 37070 ft 603 kts 107°
2026-05-05 04:28 51.79613 -4.24790 37050 ft 602 kts 108°
2026-05-05 04:29 51.77967 -4.11555 37038 ft 602 kts 108°
2026-05-05 04:29 51.76309 -3.98360 37033 ft 602 kts 108°
2026-05-05 04:30 51.74623 -3.85132 37031 ft 602 kts 108°
2026-05-05 04:30 51.72913 -3.71876 37031 ft 602 kts 108°
2026-05-05 04:31 51.71240 -3.58637 37031 ft 604 kts 105°
2026-05-05 04:31 51.70168 -3.45158 37031 ft 609 kts 100°
2026-05-05 04:32 51.69400 -3.31596 37027 ft 609 kts 100°
2026-05-05 04:32 51.68631 -3.18028 37031 ft 609 kts 100°
2026-05-05 04:33 51.67811 -3.04392 37031 ft 609 kts 100°
2026-05-05 04:33 51.66966 -2.90860 37030 ft 610 kts 100°
2026-05-05 04:34 51.66104 -2.77226 37031 ft 611 kts 100°
2026-05-05 04:34 51.65237 -2.63665 37031 ft 611 kts 100°
2026-05-05 04:35 51.64372 -2.50148 37031 ft 605 kts 101°
2026-05-05 04:35 51.63458 -2.36731 37030 ft 605 kts 101°
2026-05-05 04:36 51.62529 -2.23289 37028 ft 604 kts 102°
2026-05-05 04:36 51.61597 -2.09845 37024 ft 604 kts 102°
2026-05-05 04:37 51.60662 -1.96491 37021 ft 604 kts 102°
2026-05-05 04:37 51.59704 -1.83010 37020 ft 605 kts 102°
2026-05-05 04:38 51.58584 -1.69663 37018 ft 600 kts 107°
2026-05-05 04:38 51.56602 -1.56759 37020 ft 591 kts 115°
2026-05-05 04:39 51.53954 -1.44339 37024 ft 589 kts 117°
2026-05-05 04:39 51.51260 -1.31950 37025 ft 589 kts 117°
2026-05-05 04:40 51.48812 -1.19277 37028 ft 595 kts 111°
2026-05-05 04:40 51.47094 -1.06139 37026 ft 605 kts 107°
2026-05-05 04:41 51.45492 -0.92862 37025 ft 612 kts 107°
2026-05-05 04:41 51.43803 -0.79345 37018 ft 612 kts 107°
2026-05-05 04:42 51.42097 -0.65891 37010 ft 612 kts 107°
2026-05-05 04:42 51.40384 -0.52502 37006 ft 613 kts 107°
2026-05-05 04:43 51.38650 -0.39060 37005 ft 613 kts 107°
2026-05-05 04:43 51.36921 -0.25704 37003 ft 612 kts 108°
2026-05-05 04:44 51.35165 -0.12352 37004 ft 612 kts 108°
2026-05-05 04:44 51.33402 0.00900 37001 ft 612 kts 108°
2026-05-05 04:45 51.31968 0.14384 37004 ft 616 kts 104°
2026-05-05 04:45 51.30698 0.27938 37004 ft 616 kts 103°
2026-05-05 04:46 51.29424 0.41470 37005 ft 616 kts 103°
2026-05-05 04:46 51.28117 0.55007 37005 ft 616 kts 104°
2026-05-05 04:47 51.26785 0.68589 37000 ft 616 kts 104°
2026-05-05 04:47 51.25451 0.82055 37004 ft 615 kts 104°
2026-05-05 04:48 51.24088 0.95609 37004 ft 615 kts 104°
2026-05-05 04:48 51.22721 1.09022 37005 ft 615 kts 104°
2026-05-05 04:49 51.21327 1.22535 37005 ft 613 kts 104°
2026-05-05 04:49 51.19925 1.35996 37005 ft 613 kts 104°
2026-05-05 04:50 51.18512 1.49410 37004 ft 613 kts 104°
2026-05-05 04:50 51.17091 1.62755 36998 ft 613 kts 104°
2026-05-05 04:51 51.15653 1.76182 36985 ft 613 kts 105°
2026-05-05 04:51 51.14195 1.89604 36979 ft 613 kts 105°
2026-05-05 04:52 51.12876 2.02949 36974 ft 616 kts 101°
2026-05-05 04:52 51.12092 2.16589 36976 ft 618 kts 98°
2026-05-05 04:53 51.11398 2.30272 36976 ft 618 kts 98°
2026-05-05 04:53 51.10666 2.43836 36977 ft 618 kts 98°
2026-05-05 04:54 51.09805 2.57472 36977 ft 615 kts 102°
2026-05-05 04:54 51.08140 2.70644 36975 ft 607 kts 111°
2026-05-05 04:55 51.05530 2.83405 36976 ft 602 kts 117°
2026-05-05 04:55 51.02685 2.95932 36976 ft 602 kts 116°
2026-05-05 04:56 50.99833 3.08492 36975 ft 603 kts 115°
2026-05-05 04:56 50.97036 3.20949 36972 ft 601 kts 114°
2026-05-05 04:57 50.94241 3.33415 36967 ft 596 kts 114°
2026-05-05 04:57 50.91449 3.45790 36962 ft 592 kts 113°
2026-05-05 04:58 50.88662 3.58016 36955 ft 588 kts 113°
2026-05-05 04:58 50.85877 3.70062 36948 ft 585 kts 114°
2026-05-05 04:59 50.83099 3.82115 36939 ft 585 kts 114°
2026-05-05 04:59 50.80303 3.94206 36928 ft 585 kts 114°
2026-05-05 05:00 50.77483 4.06333 36923 ft 585 kts 114°
2026-05-05 05:00 50.74655 4.18420 36921 ft 585 kts 114°
2026-05-05 05:01 50.71816 4.30483 36921 ft 585 kts 114°
2026-05-05 05:01 50.68957 4.42569 36921 ft 585 kts 114°
2026-05-05 05:02 50.66104 4.54560 36921 ft 585 kts 114°
2026-05-05 05:02 50.63239 4.66538 36919 ft 585 kts 115°
2026-05-05 05:03 50.60351 4.78589 36921 ft 585 kts 115°
2026-05-05 05:03 50.57469 4.90516 36921 ft 585 kts 114°
2026-05-05 05:04 50.54545 5.02525 36921 ft 585 kts 114°
2026-05-05 05:04 50.51629 5.14459 36921 ft 584 kts 114°
2026-05-05 05:05 50.48701 5.26382 36921 ft 584 kts 114°
2026-05-05 05:05 50.45767 5.38262 36921 ft 585 kts 114°
2026-05-05 05:06 50.42816 5.50141 36921 ft 585 kts 114°
2026-05-05 05:06 50.39846 5.62035 36921 ft 585 kts 114°
2026-05-05 05:07 50.36890 5.73835 36920 ft 584 kts 114°
2026-05-05 05:07 50.33905 5.85693 36921 ft 584 kts 114°
2026-05-05 05:08 50.30892 5.97578 36917 ft 584 kts 114°
2026-05-05 05:08 50.27886 6.09368 36909 ft 584 kts 114°
2026-05-05 05:09 50.24863 6.21171 36902 ft 584 kts 114°
2026-05-05 05:09 50.21831 6.32962 36900 ft 584 kts 114°
2026-05-05 05:10 50.18719 6.44708 36900 ft 583 kts 117°
2026-05-05 05:10 50.15070 6.55942 36900 ft 581 kts 121°
2026-05-05 05:11 50.11259 6.67071 36897 ft 581 kts 122°
2026-05-05 05:11 50.07469 6.78165 36900 ft 581 kts 122°
2026-05-05 05:12 50.03663 6.89294 36904 ft 581 kts 122°
2026-05-05 05:12 49.99839 7.00422 36907 ft 581 kts 122°
2026-05-05 05:13 49.95997 7.11535 36910 ft 585 kts 121°
2026-05-05 05:13 49.92132 7.22675 36915 ft 589 kts 120°
2026-05-05 05:14 49.88247 7.33830 36919 ft 589 kts 121°
2026-05-05 05:14 49.84308 7.45014 36923 ft 589 kts 121°
2026-05-05 05:15 49.80393 7.56119 36924 ft 589 kts 121°
2026-05-05 05:15 49.76488 7.67187 36914 ft 589 kts 121°
2026-05-05 05:16 49.72580 7.78264 36907 ft 589 kts 121°
2026-05-05 05:16 49.68650 7.89337 36902 ft 589 kts 121°
2026-05-05 05:17 49.64698 8.00405 36900 ft 589 kts 121°
2026-05-05 05:17 49.60755 8.11399 36900 ft 589 kts 121°
2026-05-05 05:18 49.56771 8.22462 36897 ft 589 kts 121°
2026-05-05 05:18 49.52798 8.33448 36895 ft 589 kts 121°
2026-05-05 05:19 49.48807 8.44439 36895 ft 589 kts 121°
2026-05-05 05:19 49.44826 8.55362 36895 ft 589 kts 121°
2026-05-05 05:20 49.40814 8.66334 36892 ft 589 kts 122°
2026-05-05 05:20 49.36813 8.77274 36894 ft 589 kts 122°
2026-05-05 05:21 49.32785 8.88115 36894 ft 588 kts 123°
2026-05-05 05:21 49.28660 8.98940 36894 ft 591 kts 122°
2026-05-05 05:22 49.24500 9.09826 36894 ft 594 kts 121°
2026-05-05 05:22 49.20325 9.20771 36896 ft 595 kts 121°
2026-05-05 05:23 49.16163 9.31667 36903 ft 595 kts 121°
2026-05-05 05:23 49.11988 9.42541 36913 ft 595 kts 121°
2026-05-05 05:24 49.07772 9.53458 36919 ft 593 kts 120°
2026-05-05 05:24 49.03612 9.64181 36921 ft 589 kts 120°
2026-05-05 05:25 48.99468 9.74867 36920 ft 585 kts 120°
2026-05-05 05:25 48.95342 9.85457 36920 ft 580 kts 120°
2026-05-05 05:26 48.91208 9.96029 36920 ft 579 kts 120°
2026-05-05 05:26 48.87071 10.06511 36917 ft 579 kts 120°
2026-05-05 05:27 48.82971 10.16968 36919 ft 579 kts 119°
2026-05-05 05:27 48.76962 10.32818 36920 ft 579 kts 118°
2026-05-05 05:28 48.72939 10.43403 36919 ft 579 kts 118°
2026-05-05 05:28 48.68925 10.53917 36919 ft 579 kts 118°
2026-05-05 05:29 48.64890 10.64448 36920 ft 579 kts 118°
2026-05-05 05:29 48.60876 10.75030 36919 ft 579 kts 117°
2026-05-05 05:30 48.57461 10.85962 36918 ft 577 kts 109°
2026-05-05 05:30 48.54765 10.97293 36917 ft 575 kts 104°
2026-05-05 05:31 48.52173 11.08751 36914 ft 575 kts 104°
2026-05-05 05:31 48.49582 11.20121 36910 ft 575 kts 104°
2026-05-05 05:32 48.46942 11.31543 36902 ft 575 kts 104°
2026-05-05 05:32 48.44294 11.42899 36898 ft 575 kts 104°
2026-05-05 05:33 48.41626 11.54272 36896 ft 575 kts 104°
2026-05-05 05:33 48.38959 11.65577 36894 ft 575 kts 105°
2026-05-05 05:34 48.36291 11.76862 36894 ft 576 kts 105°
2026-05-05 05:34 48.33606 11.88167 36890 ft 576 kts 105°
2026-05-05 05:35 48.30881 11.99571 36894 ft 579 kts 105°
2026-05-05 05:35 48.28149 12.10907 36895 ft 579 kts 106°
2026-05-05 05:36 48.25405 12.22239 36895 ft 579 kts 105°
2026-05-05 05:36 48.22654 12.33565 36895 ft 579 kts 105°
2026-05-05 05:37 48.19913 12.44808 36895 ft 579 kts 105°
2026-05-05 05:37 48.17146 12.56101 36895 ft 579 kts 105°
2026-05-05 05:38 48.14029 12.67221 36892 ft 583 kts 113°
2026-05-05 05:38 48.10039 12.77800 36895 ft 586 kts 121°
2026-05-05 05:39 48.05413 12.87877 36895 ft 587 kts 123°
2026-05-05 05:39 48.00751 12.97845 36894 ft 587 kts 123°
2026-05-05 05:40 47.96089 13.07833 36895 ft 588 kts 122°
2026-05-05 05:40 47.91446 13.17793 36895 ft 588 kts 121°
2026-05-05 05:41 47.86785 13.27744 36893 ft 588 kts 121°
2026-05-05 05:41 47.82112 13.37665 36894 ft 588 kts 121°
2026-05-05 05:42 47.77417 13.47626 36894 ft 588 kts 121°
2026-05-05 05:42 47.72745 13.57518 36894 ft 588 kts 121°
2026-05-05 05:43 47.68041 13.67457 36892 ft 588 kts 122°
2026-05-05 05:43 47.63324 13.77414 36895 ft 589 kts 122°
2026-05-05 05:44 47.58635 13.87258 36895 ft 588 kts 122°
2026-05-05 05:44 47.53903 13.97151 36896 ft 589 kts 122°
2026-05-05 05:45 47.49173 14.06993 36913 ft 589 kts 122°
2026-05-05 05:45 47.44397 14.16893 36944 ft 589 kts 122°
2026-05-05 05:46 47.39637 14.26731 36965 ft 588 kts 122°
2026-05-05 05:46 47.34891 14.36508 36972 ft 588 kts 122°
2026-05-05 05:47 47.30055 14.46432 36974 ft 589 kts 122°
2026-05-05 05:47 47.25284 14.56182 36975 ft 588 kts 122°
2026-05-05 05:48 47.20488 14.65955 36973 ft 588 kts 122°
2026-05-05 05:48 47.15670 14.75771 36973 ft 589 kts 123°
2026-05-05 05:49 47.10889 14.85464 36974 ft 589 kts 123°
2026-05-05 05:49 47.06059 14.95193 36973 ft 590 kts 122°
2026-05-05 05:50 47.01192 15.04953 36968 ft 593 kts 121°
2026-05-05 05:50 46.96335 15.14664 36960 ft 591 kts 120°
2026-05-05 05:51 46.91495 15.24333 36954 ft 587 kts 120°
2026-05-05 05:51 46.86669 15.33905 36948 ft 582 kts 120°
2026-05-05 05:52 46.81878 15.43358 36949 ft 582 kts 120°
2026-05-05 05:52 46.77094 15.52827 36952 ft 582 kts 119°
2026-05-05 05:53 46.72300 15.62294 36961 ft 582 kts 120°
2026-05-05 05:53 46.67439 15.71690 36968 ft 583 kts 121°
2026-05-05 05:54 46.62502 15.80989 36973 ft 584 kts 122°
2026-05-05 05:54 46.57553 15.90300 36974 ft 583 kts 121°
2026-05-05 05:55 46.52620 15.99588 36974 ft 583 kts 121°
2026-05-05 05:55 46.47666 16.08904 36974 ft 583 kts 121°
2026-05-05 05:56 46.42710 16.18198 36974 ft 584 kts 121°
2026-05-05 05:56 46.37824 16.27524 36974 ft 580 kts 118°
2026-05-05 05:57 46.33511 16.37209 36982 ft 576 kts 114°
2026-05-05 05:57 46.29312 16.47095 36995 ft 576 kts 114°
2026-05-05 05:58 46.25122 16.56929 37009 ft 576 kts 114°
2026-05-05 05:58 46.20925 16.66717 37013 ft 575 kts 115°
2026-05-05 05:59 46.16719 16.76502 37006 ft 576 kts 115°
2026-05-05 05:59 46.12514 16.86245 36993 ft 575 kts 115°
2026-05-05 06:00 46.08302 16.95955 36984 ft 569 kts 116°
2026-05-05 06:00 46.04113 17.05573 36980 ft 564 kts 116°
2026-05-05 06:01 45.99975 17.15029 36977 ft 563 kts 116°
2026-05-05 06:01 45.95808 17.24524 36976 ft 563 kts 116°
2026-05-05 06:02 45.91615 17.34045 36977 ft 563 kts 116°
2026-05-05 06:02 45.87428 17.43493 36988 ft 564 kts 116°
2026-05-05 06:03 45.83209 17.52933 37007 ft 563 kts 116°
2026-05-05 06:03 45.79009 17.62343 37019 ft 563 kts 116°
2026-05-05 06:04 45.74785 17.71824 37024 ft 564 kts 117°
2026-05-05 06:04 45.70589 17.81222 37028 ft 564 kts 117°
2026-05-05 06:05 45.66370 17.90627 37029 ft 564 kts 117°
2026-05-05 06:05 45.62148 17.99999 37029 ft 564 kts 117°
2026-05-05 06:06 45.57892 18.09413 37029 ft 564 kts 117°
2026-05-05 06:06 45.53649 18.18767 37029 ft 564 kts 117°
2026-05-05 06:07 45.49400 18.28104 37029 ft 564 kts 117°
2026-05-05 06:07 45.45128 18.37462 37029 ft 564 kts 117°
2026-05-05 06:08 45.40857 18.46787 37029 ft 563 kts 117°
2026-05-05 06:08 45.36591 18.56075 37029 ft 564 kts 117°
2026-05-05 06:09 45.32305 18.65374 37029 ft 564 kts 117°
2026-05-05 06:09 45.28008 18.74695 37029 ft 564 kts 117°
2026-05-05 06:10 45.23710 18.83978 37029 ft 564 kts 117°
2026-05-05 06:10 45.19398 18.93256 37029 ft 564 kts 117°
2026-05-05 06:11 45.15116 19.02447 37031 ft 561 kts 118°
2026-05-05 06:11 45.10990 19.11740 37031 ft 550 kts 116°
2026-05-05 06:12 45.07205 19.20980 37031 ft 539 kts 117°
2026-05-05 06:12 45.03471 19.30106 37029 ft 536 kts 117°
2026-05-05 06:13 44.99763 19.39139 37030 ft 535 kts 117°
2026-05-05 06:13 44.96014 19.48245 37030 ft 534 kts 117°
2026-05-05 06:14 44.92308 19.57222 37035 ft 534 kts 117°
2026-05-05 06:14 44.88530 19.66321 37041 ft 534 kts 117°
2026-05-05 06:15 44.84787 19.75277 37052 ft 534 kts 117°
2026-05-05 06:15 44.81012 19.84301 37055 ft 534 kts 117°
2026-05-05 06:16 44.77267 19.93245 37057 ft 534 kts 117°
2026-05-05 06:16 44.73499 20.02225 37057 ft 534 kts 117°
2026-05-05 06:17 44.69712 20.11219 37056 ft 534 kts 117°
2026-05-05 06:17 44.65943 20.20146 37057 ft 535 kts 117°
2026-05-05 06:18 44.62159 20.29076 37057 ft 534 kts 117°
2026-05-05 06:18 44.58348 20.38043 37056 ft 534 kts 117°
2026-05-05 06:19 44.54539 20.46973 37057 ft 534 kts 117°
2026-05-05 06:19 44.50734 20.55868 37057 ft 534 kts 117°
2026-05-05 06:20 44.46933 20.64728 37057 ft 534 kts 117°
2026-05-05 06:20 44.43105 20.73652 37061 ft 535 kts 118°
2026-05-05 06:21 44.39264 20.82573 37070 ft 534 kts 118°
2026-05-05 06:21 44.35435 20.91431 37080 ft 535 kts 118°
2026-05-05 06:22 44.31612 21.00271 37093 ft 534 kts 120°
2026-05-05 06:22 44.27776 21.09089 37106 ft 529 kts 121°
2026-05-05 06:23 44.23977 21.17761 37108 ft 523 kts 121°
2026-05-05 06:23 44.20179 21.26402 37107 ft 524 kts 121°
2026-05-05 06:24 44.16390 21.35015 37105 ft 524 kts 121°
2026-05-05 06:24 44.12586 21.43641 37107 ft 523 kts 121°
2026-05-05 06:25 44.08774 21.52259 37115 ft 524 kts 121°
2026-05-05 06:25 44.04934 21.60916 37125 ft 524 kts 121°
2026-05-05 06:26 44.01125 21.69489 37131 ft 524 kts 122°
2026-05-05 06:26 43.97294 21.78107 37135 ft 523 kts 122°
2026-05-05 06:27 43.91563 21.90918 37134 ft 524 kts 122°
2026-05-05 06:28 43.87705 21.99471 37134 ft 523 kts 122°
2026-05-05 06:28 43.83828 22.08013 37136 ft 523 kts 122°
2026-05-05 06:29 43.79960 22.16553 37136 ft 524 kts 122°
2026-05-05 06:29 43.76117 22.25046 37139 ft 523 kts 122°
2026-05-05 06:30 43.72255 22.33569 37138 ft 524 kts 122°
2026-05-05 06:30 43.68455 22.42118 37138 ft 524 kts 119°
2026-05-05 06:31 43.65087 22.50996 37138 ft 523 kts 116°
2026-05-05 06:31 43.61819 22.59902 37138 ft 524 kts 116°
2026-05-05 06:32 43.58532 22.68863 37137 ft 524 kts 117°
2026-05-05 06:32 43.55254 22.77783 37136 ft 524 kts 117°
2026-05-05 06:33 43.51957 22.86718 37139 ft 524 kts 117°
2026-05-05 06:33 43.48637 22.95681 37138 ft 522 kts 118°
2026-05-05 06:34 43.45357 23.04489 37138 ft 517 kts 119°
2026-05-05 06:34 43.42065 23.13274 37139 ft 516 kts 119°
2026-05-05 06:35 43.38796 23.21982 37138 ft 516 kts 119°
2026-05-05 06:35 43.35496 23.30753 37136 ft 516 kts 119°
2026-05-05 06:36 43.32217 23.39434 37135 ft 515 kts 119°
2026-05-05 06:36 43.28910 23.48177 37137 ft 515 kts 119°
2026-05-05 06:37 43.25623 23.56836 37138 ft 516 kts 119°
2026-05-05 06:37 43.22308 23.65540 37138 ft 515 kts 120°
2026-05-05 06:38 43.19008 23.74220 37136 ft 516 kts 120°
2026-05-05 06:38 43.15686 23.82908 37140 ft 515 kts 120°
2026-05-05 06:39 43.12355 23.91587 37140 ft 515 kts 120°
2026-05-05 06:39 43.09017 24.00250 37141 ft 516 kts 120°
2026-05-05 06:40 43.05676 24.08889 37137 ft 516 kts 120°
2026-05-05 06:40 43.02340 24.17494 37133 ft 516 kts 120°
2026-05-05 06:41 42.98974 24.26145 37138 ft 518 kts 120°
2026-05-05 06:41 42.95582 24.34844 37128 ft 521 kts 120°
2026-05-05 06:42 42.92156 24.43611 37117 ft 524 kts 120°
2026-05-05 06:42 42.88720 24.52362 37104 ft 527 kts 120°
2026-05-05 06:43 42.85239 24.61152 37092 ft 529 kts 120°
2026-05-05 06:43 42.81759 24.69906 37087 ft 528 kts 120°
2026-05-05 06:44 42.78268 24.78695 37085 ft 528 kts 120°
2026-05-05 06:44 42.74790 24.87448 37085 ft 528 kts 120°
2026-05-05 06:45 42.71286 24.96244 37084 ft 528 kts 120°
2026-05-05 06:45 42.67789 25.04991 37085 ft 528 kts 120°
2026-05-05 06:46 42.64297 25.13696 37084 ft 526 kts 120°
2026-05-05 06:46 42.60787 25.22425 37085 ft 525 kts 120°
2026-05-05 06:47 42.57274 25.31141 37085 ft 525 kts 120°
2026-05-05 06:47 42.53776 25.39792 37085 ft 525 kts 120°
2026-05-05 06:48 42.50258 25.48467 37085 ft 525 kts 120°
2026-05-05 06:48 42.46713 25.57177 37085 ft 525 kts 120°
2026-05-05 06:49 42.43184 25.65825 37085 ft 525 kts 120°
2026-05-05 06:49 42.39653 25.74479 37085 ft 525 kts 120°
2026-05-05 06:50 42.36112 25.83123 37085 ft 525 kts 120°
2026-05-05 06:50 42.32588 25.91693 37085 ft 525 kts 120°
2026-05-05 06:51 42.29035 26.00314 37085 ft 525 kts 120°
2026-05-05 06:51 42.25478 26.08914 37085 ft 525 kts 120°
2026-05-05 06:52 42.21923 26.17437 37085 ft 525 kts 121°
2026-05-05 06:52 42.18335 26.26018 37085 ft 525 kts 120°
2026-05-05 06:53 42.14758 26.34569 37085 ft 525 kts 120°
2026-05-05 06:53 42.11180 26.43109 37085 ft 525 kts 120°
2026-05-05 06:54 42.07576 26.51690 37086 ft 525 kts 120°
2026-05-05 06:54 42.03989 26.60210 37086 ft 525 kts 120°
2026-05-05 06:55 42.00400 26.68728 37085 ft 525 kts 121°
2026-05-05 06:55 41.96796 26.77256 37082 ft 525 kts 121°
2026-05-05 06:56 41.93037 26.85622 37085 ft 525 kts 123°
2026-05-05 06:56 41.89235 26.93933 37086 ft 523 kts 123°
2026-05-05 06:57 41.85439 27.02224 37086 ft 518 kts 124°
2026-05-05 06:57 41.81717 27.10377 37086 ft 512 kts 124°
2026-05-05 06:58 41.77824 27.18189 37086 ft 507 kts 127°
2026-05-05 06:58 41.73809 27.25983 37085 ft 507 kts 127°
2026-05-05 06:59 41.69704 27.33532 37060 ft 501 kts 137°
2026-05-05 06:59 41.66896 27.36256 37075 ft 493 kts 156°
2026-05-05 06:59 41.63692 27.37688 37091 ft 487 kts 170°
2026-05-05 07:00 41.57069 27.39335 37086 ft 487 kts 171°
2026-05-05 07:00 41.50516 27.41399 37085 ft 488 kts 168°
2026-05-05 07:01 41.44069 27.44057 37070 ft 493 kts 154°
2026-05-05 07:01 41.41336 27.46829 37083 ft 503 kts 136°
2026-05-05 07:01 41.39345 27.50712 37084 ft 512 kts 117°
2026-05-05 07:01 41.38353 27.55274 37085 ft 519 kts 99°
2026-05-05 07:02 41.38461 27.60064 37083 ft 525 kts 81°
2026-05-05 07:02 41.39678 27.64636 37080 ft 529 kts 62°
2026-05-05 07:02 41.41909 27.68546 37083 ft 531 kts 44°
2026-05-05 07:03 41.47445 27.74926 37085 ft 531 kts 48°
2026-05-05 07:03 41.49653 27.78866 37084 ft 530 kts 59°
2026-05-05 07:03 41.51203 27.83258 37068 ft 527 kts 75°
2026-05-05 07:03 41.51722 27.88042 37079 ft 521 kts 93°
2026-05-05 07:04 41.51125 27.92769 37082 ft 514 kts 112°
2026-05-05 07:04 41.49551 27.96976 37099 ft 508 kts 124°
2026-05-05 07:04 41.47684 28.00934 37080 ft 506 kts 129°
2026-05-05 07:04 41.45261 28.04289 37084 ft 499 kts 144°
2026-05-05 07:05 41.42435 28.06843 37091 ft 495 kts 151°
2026-05-05 07:05 41.36352 28.10919 37076 ft 487 kts 170°
2026-05-05 07:05 41.33010 28.11191 37086 ft 481 kts 186°
2026-05-05 07:06 41.29681 28.10730 37090 ft 481 kts 188°
2026-05-05 07:06 41.23161 28.09413 37069 ft 477 kts 203°
2026-05-05 07:06 41.20335 28.07118 37078 ft 475 kts 221°
2026-05-05 07:07 41.18273 28.03714 37081 ft 477 kts 239°
2026-05-05 07:07 41.14752 27.96359 37085 ft 475 kts 227°
2026-05-05 07:07 41.12274 27.93434 37075 ft 476 kts 214°
2026-05-05 07:08 41.09291 27.91614 37081 ft 479 kts 196°
2026-05-05 07:08 41.05996 27.91204 37082 ft 485 kts 178°
2026-05-05 07:08 41.02652 27.91803 37092 ft 488 kts 174°
2026-05-05 07:09 40.95978 27.92975 37084 ft 488 kts 178°
2026-05-05 07:09 40.92636 27.93834 37069 ft 494 kts 162°
2026-05-05 07:09 40.89660 27.96065 37077 ft 503 kts 144°
2026-05-05 07:09 40.87297 27.99550 37085 ft 512 kts 125°
2026-05-05 07:10 40.85864 28.03849 37087 ft 519 kts 107°
2026-05-05 07:10 40.85485 28.08609 37087 ft 525 kts 88°
2026-05-05 07:10 40.86208 28.13302 37088 ft 529 kts 70°
2026-05-05 07:10 40.87994 28.17560 37087 ft 530 kts 52°
2026-05-05 07:11 40.90641 28.20879 37086 ft 528 kts 33°
2026-05-05 07:11 40.93884 28.22964 37084 ft 524 kts 15°
2026-05-05 07:11 40.97502 28.23635 37082 ft 518 kts 356°
2026-05-05 07:11 41.00999 28.22786 37079 ft 511 kts 337°
2026-05-05 07:12 41.04057 28.20544 37077 ft 503 kts 318°
2026-05-05 07:12 41.06357 28.17178 37075 ft 495 kts 299°
2026-05-05 07:12 41.07680 28.13011 37075 ft 487 kts 280°
2026-05-05 07:12 41.07863 28.08598 37074 ft 481 kts 261°
2026-05-05 07:13 41.06903 28.04384 37076 ft 477 kts 242°
2026-05-05 07:13 41.04942 28.00910 37078 ft 476 kts 223°
2026-05-05 07:13 41.02200 27.98522 37079 ft 478 kts 204°
2026-05-05 07:13 40.98951 27.97489 37081 ft 484 kts 185°
2026-05-05 07:14 40.95638 27.97938 37083 ft 492 kts 167°
2026-05-05 07:14 40.92494 27.99855 37085 ft 501 kts 148°
2026-05-05 07:14 40.89946 28.03035 37087 ft 510 kts 130°
2026-05-05 07:14 40.88256 28.07142 37088 ft 517 kts 112°
2026-05-05 07:15 40.87582 28.11778 37088 ft 523 kts 94°
2026-05-05 07:15 40.88009 28.16589 37088 ft 528 kts 75°
2026-05-05 07:15 40.89500 28.20978 37087 ft 530 kts 57°
2026-05-05 07:15 40.91917 28.24579 37086 ft 529 kts 39°
2026-05-05 07:16 40.94918 28.27460 37091 ft 529 kts 36°
2026-05-05 07:16 40.99908 28.34516 37082 ft 530 kts 57°
2026-05-05 07:16 41.01582 28.38892 37063 ft 528 kts 71°
2026-05-05 07:17 41.02241 28.43581 37073 ft 524 kts 90°
2026-05-05 07:17 41.01766 28.48361 37074 ft 517 kts 109°
2026-05-05 07:17 41.00220 28.52614 37078 ft 509 kts 127°
2026-05-05 07:18 40.95821 28.59870 37068 ft 513 kts 121°
2026-05-05 07:18 40.94561 28.64347 37085 ft 520 kts 103°
2026-05-05 07:18 40.94381 28.69124 37087 ft 526 kts 85°
2026-05-05 07:18 40.95289 28.73775 37089 ft 529 kts 68°
2026-05-05 07:19 40.97254 28.77957 37089 ft 530 kts 49°
2026-05-05 07:19 41.00027 28.81116 37088 ft 528 kts 31°
2026-05-05 07:19 41.03376 28.83027 37087 ft 525 kts 12°
2026-05-05 07:19 41.06971 28.83501 37085 ft 520 kts 354°
2026-05-05 07:20 41.10493 28.82480 37083 ft 513 kts 335°
2026-05-05 07:20 41.13513 28.80123 37086 ft 505 kts 317°
2026-05-05 07:20 41.15855 28.76657 37100 ft 499 kts 303°
2026-05-05 07:21 41.20563 28.69874 37082 ft 507 kts 320°
2026-05-05 07:21 41.23571 28.67458 37082 ft 513 kts 332°
2026-05-05 07:21 41.26910 28.65820 37082 ft 518 kts 343°
2026-05-05 07:22 41.34078 28.64369 37087 ft 518 kts 346°
2026-05-05 07:22 41.41024 28.61990 37086 ft 517 kts 342°
2026-05-05 07:23 41.47941 28.59389 37085 ft 517 kts 342°
2026-05-05 07:23 41.54651 28.56855 37085 ft 517 kts 342°
2026-05-05 07:24 41.61576 28.54234 37085 ft 517 kts 342°
2026-05-05 07:24 41.68451 28.51631 37085 ft 517 kts 342°
2026-05-05 07:25 41.75370 28.49010 37085 ft 517 kts 342°
2026-05-05 07:25 41.82280 28.46394 37085 ft 517 kts 342°
2026-05-05 07:26 41.89187 28.43774 37085 ft 517 kts 342°
2026-05-05 07:26 41.96115 28.41146 37085 ft 517 kts 342°
2026-05-05 07:27 42.03038 28.38521 37085 ft 517 kts 342°
2026-05-05 07:27 42.09949 28.35895 37086 ft 517 kts 342°
2026-05-05 07:28 42.16856 28.33272 37085 ft 517 kts 341°
2026-05-05 07:28 42.23736 28.30634 37085 ft 517 kts 341°
2026-05-05 07:29 42.30650 28.27980 37085 ft 517 kts 341°
2026-05-05 07:29 42.37506 28.25345 37085 ft 517 kts 341°
2026-05-05 07:30 42.44405 28.22695 37085 ft 517 kts 341°
2026-05-05 07:30 42.54749 28.18714 37085 ft 517 kts 341°
2026-05-05 07:31 42.61636 28.16062 37085 ft 517 kts 341°
2026-05-05 07:31 42.68558 28.13392 37085 ft 517 kts 341°
2026-05-05 07:32 42.75418 28.10745 37085 ft 517 kts 341°
2026-05-05 07:32 42.82293 28.08089 37085 ft 516 kts 341°
2026-05-05 07:33 42.89182 28.05427 37086 ft 517 kts 341°
2026-05-05 07:33 42.96051 28.02769 37086 ft 512 kts 341°
2026-05-05 07:34 43.02859 28.00108 37084 ft 507 kts 341°
2026-05-05 07:34 43.09604 27.97447 37082 ft 505 kts 341°
2026-05-05 07:35 43.16312 27.94796 37086 ft 505 kts 341°
2026-05-05 07:35 43.23027 27.92145 37084 ft 505 kts 341°
2026-05-05 07:36 43.29790 27.89478 37085 ft 506 kts 342°
2026-05-05 07:36 43.36500 27.86820 37081 ft 506 kts 342°
2026-05-05 07:37 43.43254 27.84150 37084 ft 506 kts 342°
2026-05-05 07:37 43.49965 27.81486 37084 ft 506 kts 342°
2026-05-05 07:38 43.56701 27.78826 37084 ft 506 kts 342°
2026-05-05 07:38 43.63455 27.76155 37081 ft 506 kts 342°
2026-05-05 07:39 43.70165 27.73499 37081 ft 505 kts 342°
2026-05-05 07:39 43.76928 27.70807 37081 ft 506 kts 342°
2026-05-05 07:40 43.83650 27.68145 37086 ft 506 kts 342°
2026-05-05 07:40 43.90395 27.65468 37083 ft 506 kts 342°
2026-05-05 07:41 43.97146 27.62777 37082 ft 505 kts 342°
2026-05-05 07:41 44.03868 27.60098 37079 ft 506 kts 342°
2026-05-05 07:42 44.10440 27.57473 37085 ft 505 kts 342°
2026-05-05 07:42 44.17244 27.54770 37086 ft 506 kts 342°
2026-05-05 07:43 44.23954 27.52095 37078 ft 505 kts 340°
2026-05-05 07:43 44.30016 27.47597 37085 ft 498 kts 319°
2026-05-05 07:44 44.32466 27.44248 37085 ft 494 kts 308°
2026-05-05 07:44 44.34403 27.40318 37087 ft 491 kts 297°
2026-05-05 07:44 44.36444 27.31457 37087 ft 486 kts 276°
2026-05-05 07:45 44.36570 27.26788 37086 ft 484 kts 265°
2026-05-05 07:45 44.36028 27.22165 37083 ft 483 kts 254°
2026-05-05 07:45 44.34757 27.17828 37084 ft 482 kts 240°
2026-05-05 07:45 44.33002 27.13899 37080 ft 482 kts 234°
2026-05-05 07:46 44.28275 27.07295 37083 ft 485 kts 217°
2026-05-05 07:46 44.22240 27.03067 37081 ft 490 kts 199°
2026-05-05 07:47 44.15551 27.01688 37079 ft 495 kts 181°
2026-05-05 07:47 44.08691 27.02466 37065 ft 493 kts 186°
2026-05-05 07:48 44.05349 27.01585 37087 ft 490 kts 198°
2026-05-05 07:48 44.02158 26.99826 37085 ft 488 kts 207°
2026-05-05 07:48 43.96153 26.95648 37091 ft 490 kts 202°
2026-05-05 07:49 43.89612 26.93690 37081 ft 494 kts 185°
2026-05-05 07:49 43.82771 26.93739 37082 ft 495 kts 183°
2026-05-05 07:50 43.79300 26.93563 36793 ft 495 kts 184°
2026-05-05 07:50 43.75920 26.93356 36159 ft 492 kts 185°
2026-05-05 07:50 43.72535 26.93106 35531 ft 488 kts 185°
2026-05-05 07:50 43.69167 26.92816 34898 ft 486 kts 186°
2026-05-05 07:51 43.65802 26.92519 34266 ft 483 kts 185°
2026-05-05 07:51 43.62499 26.92228 33665 ft 480 kts 185°
2026-05-05 07:51 43.59181 26.91935 33205 ft 473 kts 185°
2026-05-05 07:51 43.55900 26.91638 33092 ft 480 kts 185°
2026-05-05 07:52 43.52533 26.91332 33087 ft 492 kts 185°
2026-05-05 07:52 43.49134 26.91023 33085 ft 494 kts 186°
2026-05-05 07:52 43.42317 26.90402 33086 ft 495 kts 185°
2026-05-05 07:53 43.35445 26.89783 33089 ft 494 kts 185°
2026-05-05 07:53 43.28674 26.89163 33081 ft 493 kts 185°
2026-05-05 07:54 43.21800 26.88524 33083 ft 494 kts 185°
2026-05-05 07:54 43.15045 26.87906 33085 ft 494 kts 185°
2026-05-05 07:55 43.08198 26.87279 33083 ft 494 kts 186°
2026-05-05 07:55 43.01326 26.86672 33085 ft 495 kts 185°
2026-05-05 07:56 42.94477 26.86103 33085 ft 496 kts 186°
2026-05-05 07:56 42.87626 26.85626 33076 ft 505 kts 185°
2026-05-05 07:57 42.84121 26.85405 32670 ft 508 kts 185°
2026-05-05 07:57 42.80631 26.85188 32173 ft 509 kts 185°
2026-05-05 07:57 42.77087 26.84966 31670 ft 511 kts 185°
2026-05-05 07:57 42.73546 26.84741 31159 ft 505 kts 185°
2026-05-05 07:58 42.70121 26.84522 30660 ft 498 kts 185°
2026-05-05 07:58 42.66684 26.84299 30221 ft 490 kts 185°
2026-05-05 07:58 42.63339 26.84080 30090 ft 476 kts 185°
2026-05-05 07:58 42.60054 26.83871 30082 ft 460 kts 185°
2026-05-05 07:59 42.56933 26.83678 30080 ft 445 kts 185°
2026-05-05 07:59 42.53927 26.83499 30080 ft 430 kts 185°
2026-05-05 07:59 42.50985 26.83329 30080 ft 416 kts 185°
2026-05-05 07:59 42.48085 26.83168 30091 ft 420 kts 185°
2026-05-05 08:00 42.45118 26.82997 30089 ft 437 kts 185°
2026-05-05 08:00 42.42046 26.82816 30085 ft 446 kts 185°
2026-05-05 08:00 42.35893 26.82447 30085 ft 446 kts 186°
2026-05-05 08:01 42.32843 26.81891 30075 ft 441 kts 198°
2026-05-05 08:01 42.30020 26.80327 30084 ft 436 kts 212°
2026-05-05 08:01 42.24955 26.75952 30071 ft 438 kts 208°
2026-05-05 08:02 42.22071 26.74564 29913 ft 444 kts 195°
2026-05-05 08:02 42.18988 26.74223 29422 ft 447 kts 179°
2026-05-05 08:02 42.15980 26.74955 28946 ft 448 kts 164°
2026-05-05 08:02 42.13133 26.76717 28458 ft 448 kts 149°
2026-05-05 08:03 42.10733 26.79337 27975 ft 446 kts 134°
2026-05-05 08:03 42.08699 26.82413 27504 ft 444 kts 134°
2026-05-05 08:03 42.06348 26.85042 27036 ft 441 kts 144°
2026-05-05 08:03 42.03846 26.87392 26551 ft 439 kts 150°
2026-05-05 08:04 42.01032 26.88819 26065 ft 433 kts 171°
2026-05-05 08:04 41.98066 26.89368 25601 ft 431 kts 171°
2026-05-05 08:04 41.95197 26.90447 25217 ft 427 kts 161°
2026-05-05 08:04 41.92438 26.91900 25083 ft 416 kts 155°
2026-05-05 08:05 41.89867 26.93574 25090 ft 415 kts 154°
2026-05-05 08:05 41.87330 26.95340 25072 ft 416 kts 147°
2026-05-05 08:05 41.85157 26.97842 25130 ft 410 kts 135°
2026-05-05 08:05 41.83359 27.00761 25095 ft 397 kts 130°
2026-05-05 08:06 41.81752 27.03698 25084 ft 384 kts 126°
2026-05-05 08:06 41.80650 27.06874 25071 ft 376 kts 107°
2026-05-05 08:06 41.80071 27.10287 25079 ft 376 kts 110°
2026-05-05 08:06 41.79039 27.13460 25002 ft 373 kts 120°
2026-05-05 08:07 41.77804 27.16497 24569 ft 372 kts 122°
2026-05-05 08:07 41.76519 27.19522 24139 ft 370 kts 122°
2026-05-05 08:07 41.75244 27.22491 23714 ft 368 kts 122°
2026-05-05 08:07 41.73981 27.25415 23293 ft 366 kts 122°
2026-05-05 08:08 41.72672 27.28364 22852 ft 363 kts 126°
2026-05-05 08:08 41.71086 27.30940 22425 ft 359 kts 135°
2026-05-05 08:08 41.69092 27.32900 21982 ft 356 kts 154°
2026-05-05 08:08 41.66785 27.33942 21570 ft 354 kts 164°
2026-05-05 08:09 41.64391 27.34711 21140 ft 351 kts 166°
2026-05-05 08:09 41.62065 27.35401 20707 ft 332 kts 166°
2026-05-05 08:09 41.59865 27.36035 20139 ft 320 kts 166°
2026-05-05 08:09 41.57745 27.36685 19536 ft 312 kts 163°
2026-05-05 08:10 41.55665 27.37446 18939 ft 315 kts 162°
2026-05-05 08:10 41.53543 27.38244 18340 ft 321 kts 162°
2026-05-05 08:10 41.51398 27.39045 17738 ft 319 kts 162°
2026-05-05 08:10 41.49303 27.39856 17122 ft 308 kts 156°
2026-05-05 08:11 41.47555 27.41307 16510 ft 294 kts 133°
2026-05-05 08:11 41.46473 27.43544 15901 ft 285 kts 109°
2026-05-05 08:11 41.46172 27.46115 15312 ft 282 kts 94°
2026-05-05 08:11 41.46113 27.48714 14712 ft 280 kts 92°
2026-05-05 08:12 41.46070 27.51302 14218 ft 277 kts 92°
2026-05-05 08:12 41.46023 27.53857 13783 ft 275 kts 92°
2026-05-05 08:12 41.45971 27.56392 13412 ft 274 kts 92°
2026-05-05 08:12 41.45914 27.58928 13041 ft 275 kts 92°
2026-05-05 08:13 41.45852 27.61459 12668 ft 277 kts 92°
2026-05-05 08:13 41.45784 27.64034 12294 ft 279 kts 92°
2026-05-05 08:13 41.45721 27.66601 11918 ft 281 kts 89°
2026-05-05 08:13 41.45919 27.69178 11552 ft 282 kts 81°
2026-05-05 08:14 41.46258 27.71702 11174 ft 271 kts 79°
2026-05-05 08:14 41.46603 27.74132 10789 ft 259 kts 79°
2026-05-05 08:14 41.46925 27.76430 10410 ft 249 kts 79°
2026-05-05 08:14 41.47230 27.78699 10127 ft 249 kts 79°
2026-05-05 08:15 41.47539 27.80995 10098 ft 251 kts 79°
2026-05-05 08:15 41.47845 27.83276 10083 ft 250 kts 79°
2026-05-05 08:15 41.48103 27.85549 10077 ft 250 kts 86°
2026-05-05 08:15 41.48051 27.87879 10092 ft 252 kts 92°
2026-05-05 08:16 41.47912 27.90198 10086 ft 251 kts 93°
2026-05-05 08:16 41.47771 27.92536 10085 ft 251 kts 93°
2026-05-05 08:16 41.47575 27.94851 10071 ft 253 kts 102°
2026-05-05 08:16 41.46843 27.96974 10076 ft 254 kts 123°
2026-05-05 08:17 41.45766 27.98802 10036 ft 249 kts 127°
2026-05-05 08:17 41.44645 28.00541 9856 ft 249 kts 128°
2026-05-05 08:17 41.43500 28.02265 9683 ft 251 kts 128°
2026-05-05 08:17 41.42337 28.04011 9507 ft 250 kts 128°
2026-05-05 08:18 41.41052 28.05557 9294 ft 254 kts 144°
2026-05-05 08:18 41.39473 28.06642 8932 ft 262 kts 158°
2026-05-05 08:18 41.37665 28.07205 8567 ft 269 kts 168°
2026-05-05 08:18 41.35819 28.07565 8209 ft 273 kts 169°
2026-05-05 08:19 41.33938 28.07927 8095 ft 266 kts 169°
2026-05-05 08:19 41.32161 28.08271 8082 ft 255 kts 168°
2026-05-05 08:19 41.30448 28.08810 8062 ft 252 kts 152°
2026-05-05 08:19 41.28940 28.09965 8098 ft 254 kts 144°
2026-05-05 08:20 41.27453 28.11246 8088 ft 254 kts 143°
2026-05-05 08:20 41.25971 28.12547 8090 ft 251 kts 143°
2026-05-05 08:20 41.24535 28.13806 8085 ft 250 kts 143°
2026-05-05 08:20 41.23064 28.15095 8083 ft 252 kts 143°
2026-05-05 08:21 41.21608 28.16373 8085 ft 253 kts 143°
2026-05-05 08:21 41.20142 28.17659 8086 ft 252 kts 143°
2026-05-05 08:21 41.18696 28.18927 8082 ft 252 kts 143°
2026-05-05 08:21 41.17229 28.20216 8088 ft 253 kts 143°
2026-05-05 08:22 41.15761 28.21503 8085 ft 251 kts 143°
2026-05-05 08:22 41.14298 28.22787 8088 ft 253 kts 143°
2026-05-05 08:22 41.12844 28.24063 8083 ft 253 kts 143°
2026-05-05 08:22 41.11378 28.25350 8081 ft 251 kts 143°
2026-05-05 08:23 41.09956 28.26599 8081 ft 242 kts 143°
2026-05-05 08:23 41.08583 28.27804 8078 ft 231 kts 143°
2026-05-05 08:23 41.07278 28.28954 8077 ft 220 kts 143°
2026-05-05 08:23 41.06006 28.30081 8087 ft 220 kts 143°
2026-05-05 08:24 41.04747 28.31212 8140 ft 219 kts 148°
2026-05-05 08:24 41.03556 28.32451 8115 ft 220 kts 143°
2026-05-05 08:24 41.02406 28.33709 8078 ft 206 kts 143°
2026-05-05 08:24 41.01338 28.34885 8070 ft 196 kts 143°
2026-05-05 08:25 41.00265 28.36066 8087 ft 202 kts 143°
2026-05-05 08:25 40.99184 28.37262 8086 ft 203 kts 142°
2026-05-05 08:25 40.98117 28.38465 8084 ft 204 kts 142°
2026-05-05 08:25 40.97032 28.39685 8085 ft 203 kts 142°
2026-05-05 08:26 40.96008 28.40977 8063 ft 205 kts 127°
2026-05-05 08:26 40.95583 28.42752 8084 ft 209 kts 95°
2026-05-05 08:26 40.95550 28.44690 8088 ft 210 kts 90°
2026-05-05 08:26 40.95563 28.46629 8087 ft 210 kts 90°
2026-05-05 08:27 40.95580 28.48539 7989 ft 211 kts 90°
2026-05-05 08:27 40.95602 28.50487 7655 ft 210 kts 89°
2026-05-05 08:27 40.95626 28.52418 7329 ft 208 kts 89°
2026-05-05 08:27 40.95645 28.54320 6946 ft 210 kts 90°
2026-05-05 08:28 40.95657 28.56243 6577 ft 210 kts 89°
2026-05-05 08:28 40.95659 28.58138 6327 ft 205 kts 89°
2026-05-05 08:28 40.95657 28.60027 6072 ft 202 kts 89°
2026-05-05 08:28 40.95657 28.61864 5827 ft 202 kts 89°
2026-05-05 08:29 40.95659 28.63740 5575 ft 201 kts 89°
2026-05-05 08:29 40.95660 28.65558 5329 ft 200 kts 90°
2026-05-05 08:29 40.95655 28.67368 5080 ft 197 kts 89°
2026-05-05 08:30 40.96109 28.70814 4496 ft 194 kts 49°
2026-05-05 08:30 40.97213 28.71686 4145 ft 185 kts
2026-05-05 08:30 40.98409 28.71552 4096 ft 163 kts 348°
2026-05-05 08:30 40.99590 28.71445 4097 ft 175 kts 355°
2026-05-05 08:31 41.00777 28.71385 4082 ft 172 kts 355°
2026-05-05 08:31 41.01976 28.71338 4011 ft 175 kts 356°
2026-05-05 08:31 41.03194 28.71297 3959 ft 172 kts 357°
2026-05-05 08:31 41.04365 28.71162 3875 ft 169 kts 358°
2026-05-05 08:32 41.05534 28.71102 3840 ft 167 kts 360°
2026-05-05 08:32 41.06690 28.71078 3834 ft 162 kts
2026-05-05 08:32 41.07803 28.71070 3783 ft 160 kts
2026-05-05 08:32 41.08897 28.71074 3705 ft 159 kts
2026-05-05 08:33 41.10009 28.71071 3634 ft 159 kts
2026-05-05 08:33 41.11107 28.71087 3589 ft 157 kts
2026-05-05 08:33 41.12204 28.71110 3585 ft 157 kts
2026-05-05 08:33 41.13292 28.71159 3584 ft 157 kts
2026-05-05 08:34 41.14362 28.71308 3585 ft 157 kts
2026-05-05 08:34 41.15442 28.71525 3525 ft 157 kts 11°
2026-05-05 08:34 41.16516 28.71711 3429 ft 156 kts
2026-05-05 08:34 41.17604 28.71714 3251 ft 160 kts 358°
2026-05-05 08:35 41.18615 28.71733 2937 ft 157 kts
2026-05-05 08:35 41.19675 28.72101 2454 ft 162 kts 18°
2026-05-05 08:35 41.20880 28.72734 2118 ft 151 kts 20°
2026-05-05 08:35 41.21864 28.73016 1711 ft 152 kts
2026-05-05 08:36 41.22753 28.72990 1366 ft 153 kts 355°
2026-05-05 08:36 41.23784 28.72841 1096 ft 149 kts 355°
2026-05-05 08:36 41.24823 28.72792 702 ft 151 kts 360°
2026-05-05 08:36 41.25844 28.72768 440 ft 143 kts
2026-05-05 08:37 41.26780 28.72757 339 ft 118 kts
2026-05-05 08:37 41.27280 28.72756 339 ft 36 kts 358°
2026-05-05 08:37 41.27544 28.72750 339 ft 41 kts 359°
2026-05-05 08:37 41.27747 28.72745 338 ft 22 kts
2026-05-05 08:38 41.27908 28.72758 338 ft 23 kts
2026-05-05 08:38 41.28038 28.72818 338 ft 15 kts 25°
2026-05-05 08:38 41.28107 28.72897 338 ft 11 kts 77°
2026-05-05 08:38 41.28057 28.72961 338 ft 11 kts 167°
2026-05-05 08:39 41.27974 28.72969 338 ft 12 kts 178°
2026-05-05 08:39 41.27886 28.72972 338 ft 12 kts 179°
2026-05-05 08:39 41.27794 28.72974 338 ft 13 kts 179°
2026-05-05 08:39 41.27698 28.72974 338 ft 14 kts 183°
2026-05-05 08:40 41.27597 28.72972 338 ft 14 kts 179°
2026-05-05 08:40 41.27493 28.72978 338 ft 15 kts 177°
2026-05-05 08:40 41.27383 28.72981 338 ft 15 kts 180°
2026-05-05 08:40 41.27271 28.72984 338 ft 16 kts 180°
2026-05-05 08:41 41.27155 28.72986 338 ft 17 kts 179°
2026-05-05 08:41 41.27032 28.72989 338 ft 17 kts 179°
2026-05-05 08:41 41.26909 28.72995 338 ft 13 kts 173°
2026-05-05 08:41 41.26859 28.73086 338 ft 13 kts 96°
2026-05-05 08:42 41.26858 28.73214 338 ft 14 kts 90°
2026-05-05 08:42 41.26859 28.73347 338 ft 14 kts 89°
2026-05-05 08:42 41.26847 28.73428 338 ft 7 kts 126°
2026-05-05 08:42 41.26815 28.73443 338 ft 5 kts 175°
2026-05-05 08:43 41.26779 28.73446 338 ft 1 kts 178°
2026-05-05 08:43 41.26774 28.73446 338 ft 1 kts 179°
2026-05-05 08:43 41.26769 28.73446 338 ft 0 kts 178°